Wetterdaten: Donnerstag, 02.12.2021
Datum Zeit Temp. Aussen Temp. o. S. Temp +5cm Feuchte Auss Luftdruck Regen Sonnenschein Regendauer Solar Windben Empfang
02.12.2021 00:00 4,8 C 4,4 C 2,8 C 95 % 998,2 hPa 0,0 l/m 0 min 0 min 0 W/m 6,4 km/h (2 Bft) 97,87 %
02.12.2021 00:02 4,8 C 3,9 C 2,8 C 95 % 998,2 hPa 0,0 l/m 0 min 0 min 0 W/m 12,9 km/h (3 Bft) 100,00 %
02.12.2021 00:04 4,7 C 3,9 C 2,8 C 95 % 998,2 hPa 0,0 l/m 0 min 0 min 0 W/m 9,7 km/h (2 Bft) 100,00 %
02.12.2021 00:08 4,7 C 4,4 C 2,8 C 95 % 998,3 hPa 0,0 l/m 0 min 0 min 0 W/m 16,1 km/h (3 Bft) 97,87 %
02.12.2021 00:10 4,7 C 3,9 C 2,8 C 95 % 998,3 hPa 0,0 l/m 0 min 0 min 0 W/m 6,4 km/h (2 Bft) 93,62 %
02.12.2021 00:12 4,7 C 3,9 C 2,8 C 95 % 998,3 hPa 0,0 l/m 0 min 0 min 0 W/m 6,4 km/h (2 Bft) 100,00 %
02.12.2021 00:14 4,7 C 3,9 C 2,8 C 95 % 998,3 hPa 0,0 l/m 0 min 0 min 0 W/m 6,4 km/h (2 Bft) 100,00 %
02.12.2021 00:16 4,7 C 3,9 C 2,8 C 95 % 998,4 hPa 0,0 l/m 0 min 0 min 0 W/m 12,9 km/h (3 Bft) 100,00 %
02.12.2021 00:18 4,7 C 3,9 C 2,8 C 95 % 998,3 hPa 0,0 l/m 0 min 0 min 0 W/m 3,2 km/h (1 Bft) 100,00 %
02.12.2021 00:20 4,7 C 3,9 C 2,8 C 95 % 998,3 hPa 0,0 l/m 0 min 0 min 0 W/m 6,4 km/h (2 Bft) 100,00 %
02.12.2021 00:22 4,7 C 3,9 C 2,8 C 95 % 998,4 hPa 0,0 l/m 0 min 0 min 0 W/m 3,2 km/h (1 Bft) 100,00 %
02.12.2021 00:24 4,6 C 3,9 C 2,8 C 95 % 998,4 hPa 0,0 l/m 0 min 0 min 0 W/m 3,2 km/h (1 Bft) 100,00 %
02.12.2021 00:26 4,7 C 3,9 C 2,8 C 95 % 998,4 hPa 0,0 l/m 0 min 0 min 0 W/m 3,2 km/h (1 Bft) 95,65 %
02.12.2021 00:28 4,6 C 3,9 C 2,8 C 95 % 998,4 hPa 0,0 l/m 0 min 0 min 0 W/m 3,2 km/h (1 Bft) 100,00 %
02.12.2021 00:30 4,7 C 3,9 C 2,8 C 95 % 998,5 hPa 0,0 l/m 0 min 0 min 0 W/m 6,4 km/h (2 Bft) 100,00 %
02.12.2021 00:32 4,7 C 3,9 C 2,8 C 95 % 998,4 hPa 0,0 l/m 0 min 0 min 0 W/m 6,4 km/h (2 Bft) 100,00 %
02.12.2021 00:34 4,7 C 3,9 C 2,8 C 95 % 998,4 hPa 0,0 l/m 0 min 0 min 0 W/m 3,2 km/h (1 Bft) 97,87 %
02.12.2021 00:36 4,7 C 3,9 C 2,8 C 95 % 998,4 hPa 0,0 l/m 0 min 0 min 0 W/m 3,2 km/h (1 Bft) 100,00 %
02.12.2021 00:38 4,7 C 3,9 C 2,8 C 95 % 998,4 hPa 0,0 l/m 0 min 0 min 0 W/m 6,4 km/h (2 Bft) 100,00 %
02.12.2021 00:40 4,7 C 3,9 C 2,8 C 95 % 998,4 hPa 0,0 l/m 0 min 0 min 0 W/m 3,2 km/h (1 Bft) 97,87 %
02.12.2021 00:42 4,7 C 3,9 C 2,8 C 95 % 998,4 hPa 0,0 l/m 0 min 0 min 0 W/m 3,2 km/h (1 Bft) 68,09 %
02.12.2021 00:44 4,7 C 3,9 C 2,8 C 95 % 998,5 hPa 0,0 l/m 0 min 0 min 0 W/m 6,4 km/h (2 Bft) 83,78 %
02.12.2021 00:46 4,7 C 3,9 C 2,8 C 95 % 998,4 hPa 0,0 l/m 0 min 0 min 0 W/m 6,4 km/h (2 Bft) 100,00 %
02.12.2021 00:48 4,7 C 3,9 C 2,8 C 95 % 998,4 hPa 0,0 l/m 0 min 0 min 0 W/m 6,4 km/h (2 Bft) 97,83 %
02.12.2021 00:50 4,7 C 4,4 C 2,8 C 95 % 998,4 hPa 0,0 l/m 0 min 0 min 0 W/m 6,4 km/h (2 Bft) 97,87 %
02.12.2021 00:52 4,7 C 4,4 C 2,8 C 95 % 998,3 hPa 0,0 l/m 0 min 0 min 0 W/m 9,7 km/h (2 Bft) 97,87 %
02.12.2021 00:54 4,7 C 4,4 C 3,3 C 95 % 998,4 hPa 0,0 l/m 0 min 0 min 0 W/m 6,4 km/h (2 Bft) 97,87 %
02.12.2021 00:56 4,8 C 4,4 C 3,3 C 95 % 998,4 hPa 0,0 l/m 0 min 0 min 0 W/m 6,4 km/h (2 Bft) 93,62 %
02.12.2021 00:58 4,8 C 4,4 C 2,8 C 95 % 998,4 hPa 0,0 l/m 0 min 0 min 0 W/m 6,4 km/h (2 Bft) 97,87 %
02.12.2021 01:00 4,8 C 4,4 C 3,3 C 95 % 998,5 hPa 0,0 l/m 0 min 0 min 0 W/m 6,4 km/h (2 Bft) 95,65 %
02.12.2021 01:02 4,8 C 4,4 C 3,3 C 95 % 998,5 hPa 0,0 l/m 0 min 0 min 0 W/m 6,4 km/h (2 Bft) 97,87 %
02.12.2021 01:04 4,8 C 4,4 C 3,3 C 95 % 998,5 hPa 0,0 l/m 0 min 0 min 0 W/m 6,4 km/h (2 Bft) 97,87 %
02.12.2021 01:06 4,8 C 4,4 C 3,3 C 95 % 998,5 hPa 0,0 l/m 0 min 0 min 0 W/m 3,2 km/h (1 Bft) 95,74 %
02.12.2021 01:08 4,8 C 4,4 C 3,3 C 95 % 998,5 hPa 0,0 l/m 0 min 0 min 0 W/m 6,4 km/h (2 Bft) 95,74 %
02.12.2021 01:10 4,8 C 4,4 C 3,3 C 95 % 998,5 hPa 0,0 l/m 0 min 0 min 0 W/m 6,4 km/h (2 Bft) 95,74 %
02.12.2021 01:12 4,8 C 4,4 C 3,3 C 95 % 998,5 hPa 0,0 l/m 0 min 0 min 0 W/m 6,4 km/h (2 Bft) 95,65 %
02.12.2021 01:14 4,8 C 4,4 C 3,3 C 95 % 998,5 hPa 0,0 l/m 0 min 0 min 0 W/m 6,4 km/h (2 Bft) 93,62 %
02.12.2021 01:16 4,8 C 4,4 C 3,3 C 95 % 998,5 hPa 0,0 l/m 0 min 0 min 0 W/m 6,4 km/h (2 Bft) 95,74 %
02.12.2021 01:18 4,8 C 4,4 C 3,3 C 95 % 998,5 hPa 0,0 l/m 0 min 0 min 0 W/m 12,9 km/h (3 Bft) 93,62 %
02.12.2021 01:20 4,8 C 4,4 C 3,3 C 95 % 998,5 hPa 0,0 l/m 0 min 0 min 0 W/m 3,2 km/h (1 Bft) 91,49 %
02.12.2021 01:22 4,8 C 4,4 C 3,3 C 95 % 998,5 hPa 0,0 l/m 0 min 0 min 0 W/m 6,4 km/h (2 Bft) 95,74 %
02.12.2021 01:24 4,8 C 3,9 C 3,3 C 95 % 998,5 hPa 0,0 l/m 0 min 0 min 0 W/m 6,4 km/h (2 Bft) 91,30 %
02.12.2021 01:26 4,8 C 4,4 C 3,3 C 95 % 998,5 hPa 0,0 l/m 0 min 0 min 0 W/m 6,4 km/h (2 Bft) 95,74 %
02.12.2021 01:28 4,8 C 3,9 C 3,3 C 95 % 998,5 hPa 0,0 l/m 0 min 0 min 0 W/m 12,9 km/h (3 Bft) 93,62 %
02.12.2021 01:30 4,8 C 3,9 C 3,3 C 95 % 998,5 hPa 0,0 l/m 0 min 0 min 0 W/m 3,2 km/h (1 Bft) 91,49 %
02.12.2021 01:32 4,8 C 4,4 C 3,3 C 95 % 998,5 hPa 0,0 l/m 0 min 0 min 0 W/m 3,2 km/h (1 Bft) 91,67 %
02.12.2021 01:34 4,8 C 4,4 C 3,3 C 95 % 998,6 hPa 0,0 l/m 0 min 0 min 0 W/m 6,4 km/h (2 Bft) 95,65 %
02.12.2021 01:36 4,8 C 4,4 C 3,3 C 95 % 998,6 hPa 0,0 l/m 0 min 0 min 0 W/m 6,4 km/h (2 Bft) 93,62 %
02.12.2021 01:38 4,8 C 4,4 C 3,3 C 95 % 998,6 hPa 0,0 l/m 0 min 0 min 0 W/m 9,7 km/h (2 Bft) 95,74 %
02.12.2021 01:40 4,8 C 4,4 C 3,3 C 95 % 998,6 hPa 0,0 l/m 0 min 0 min 0 W/m 6,4 km/h (2 Bft) 95,74 %
02.12.2021 01:42 4,8 C 4,4 C 3,3 C 95 % 998,6 hPa 0,0 l/m 0 min 0 min 0 W/m 3,2 km/h (1 Bft) 93,62 %
02.12.2021 01:44 4,8 C 4,4 C 3,3 C 95 % 998,7 hPa 0,0 l/m 0 min 0 min 0 W/m 16,1 km/h (3 Bft) 97,87 %
02.12.2021 01:46 4,8 C 4,4 C 3,3 C 95 % 998,6 hPa 0,0 l/m 0 min 0 min 0 W/m 6,4 km/h (2 Bft) 95,65 %
02.12.2021 01:48 4,8 C 4,4 C 3,3 C 95 % 998,6 hPa 0,0 l/m 0 min 0 min 0 W/m 12,9 km/h (3 Bft) 97,87 %
02.12.2021 01:50 4,8 C 4,4 C 3,3 C 95 % 998,7 hPa 0,0 l/m 0 min 0 min 0 W/m 6,4 km/h (2 Bft) 97,87 %
02.12.2021 01:52 4,8 C 4,4 C 3,3 C 95 % 998,7 hPa 0,0 l/m 0 min 0 min 0 W/m 6,4 km/h (2 Bft) 95,74 %
02.12.2021 01:54 4,8 C 4,4 C 3,3 C 95 % 998,7 hPa 0,0 l/m 0 min 0 min 0 W/m 9,7 km/h (2 Bft) 97,87 %
02.12.2021 01:56 4,8 C 4,4 C 3,3 C 96 % 998,7 hPa 0,0 l/m 0 min 0 min 0 W/m 3,2 km/h (1 Bft) 97,87 %
02.12.2021 01:58 4,8 C 4,4 C 3,3 C 96 % 998,7 hPa 0,0 l/m 0 min 0 min 0 W/m 6,4 km/h (2 Bft) 97,83 %
02.12.2021 02:00 4,8 C 4,4 C 3,3 C 96 % 998,7 hPa 0,0 l/m 0 min 0 min 0 W/m 6,4 km/h (2 Bft) 95,74 %
02.12.2021 02:02 4,8 C 4,4 C 3,3 C 96 % 998,7 hPa 0,0 l/m 0 min 0 min 0 W/m 12,9 km/h (3 Bft) 95,45 %
02.12.2021 02:04 4,8 C 4,4 C 3,3 C 96 % 998,7 hPa 0,0 l/m 0 min 0 min 0 W/m 12,9 km/h (3 Bft) 95,74 %
02.12.2021 02:06 4,8 C 4,4 C 3,3 C 96 % 998,7 hPa 0,0 l/m 0 min 0 min 0 W/m 16,1 km/h (3 Bft) 95,74 %
02.12.2021 02:08 4,8 C 4,4 C 3,3 C 96 % 998,7 hPa 0,0 l/m 0 min 0 min 0 W/m 12,9 km/h (3 Bft) 95,74 %
02.12.2021 02:10 4,8 C 4,4 C 3,3 C 95 % 998,8 hPa 0,0 l/m 0 min 0 min 0 W/m 16,1 km/h (3 Bft) 97,87 %
02.12.2021 02:12 4,8 C 4,4 C 3,3 C 95 % 998,8 hPa 0,0 l/m 0 min 0 min 0 W/m 12,9 km/h (3 Bft) 100,00 %
02.12.2021 02:14 4,8 C 4,4 C 3,3 C 95 % 998,8 hPa 0,0 l/m 0 min 0 min 0 W/m 12,9 km/h (3 Bft) 100,00 %
02.12.2021 02:16 4,8 C 4,4 C 3,3 C 95 % 998,8 hPa 0,0 l/m 0 min 0 min 0 W/m 6,4 km/h (2 Bft) 100,00 %
02.12.2021 02:18 4,9 C 4,4 C 3,3 C 95 % 998,8 hPa 0,0 l/m 0 min 0 min 0 W/m 12,9 km/h (3 Bft) 100,00 %
02.12.2021 02:20 4,9 C 4,4 C 3,3 C 95 % 998,8 hPa 0,0 l/m 0 min 0 min 0 W/m 12,9 km/h (3 Bft) 100,00 %
02.12.2021 02:22 4,9 C 4,4 C 3,3 C 95 % 998,8 hPa 0,0 l/m 0 min 0 min 0 W/m 6,4 km/h (2 Bft) 100,00 %
02.12.2021 02:24 4,9 C 4,4 C 3,3 C 95 % 998,8 hPa 0,0 l/m 0 min 0 min 0 W/m 6,4 km/h (2 Bft) 100,00 %
02.12.2021 02:26 4,9 C 4,4 C 3,3 C 95 % 998,9 hPa 0,0 l/m 0 min 0 min 0 W/m 12,9 km/h (3 Bft) 100,00 %
02.12.2021 02:28 4,9 C 4,4 C 3,3 C 95 % 998,9 hPa 0,0 l/m 0 min 2 min 0 W/m 16,1 km/h (3 Bft) 100,00 %
02.12.2021 02:30 4,9 C 4,4 C 3,3 C 95 % 998,8 hPa 0,0 l/m 0 min 2 min 0 W/m 12,9 km/h (3 Bft) 100,00 %
02.12.2021 02:32 4,9 C 4,4 C 3,3 C 95 % 998,8 hPa 0,0 l/m 0 min 0 min 0 W/m 6,4 km/h (2 Bft) 97,87 %
02.12.2021 02:34 4,9 C 4,4 C 3,3 C 95 % 998,9 hPa 0,0 l/m 0 min 0 min 0 W/m 16,1 km/h (3 Bft) 100,00 %
02.12.2021 02:36 4,9 C 4,4 C 3,3 C 95 % 998,8 hPa 0,0 l/m 0 min 0 min 0 W/m 12,9 km/h (3 Bft) 100,00 %
02.12.2021 02:38 4,9 C 4,4 C 3,3 C 95 % 998,8 hPa 0,0 l/m 0 min 0 min 0 W/m 9,7 km/h (2 Bft) 100,00 %
02.12.2021 02:40 4,9 C 4,4 C 3,3 C 95 % 998,8 hPa 0,0 l/m 0 min 0 min 0 W/m 12,9 km/h (3 Bft) 100,00 %
02.12.2021 02:42 4,9 C 4,4 C 3,3 C 95 % 998,9 hPa 0,0 l/m 0 min 0 min 0 W/m 6,4 km/h (2 Bft) 97,87 %
02.12.2021 02:44 4,8 C 4,4 C 3,3 C 95 % 998,8 hPa 0,0 l/m 0 min 0 min 0 W/m 12,9 km/h (3 Bft) 100,00 %
02.12.2021 02:46 4,8 C 4,4 C 3,3 C 95 % 998,9 hPa 0,0 l/m 0 min 0 min 0 W/m 6,4 km/h (2 Bft) 100,00 %
02.12.2021 02:48 4,8 C 4,4 C 3,3 C 95 % 998,9 hPa 0,0 l/m 0 min 0 min 0 W/m 9,7 km/h (2 Bft) 97,87 %
02.12.2021 02:50 4,8 C 4,4 C 3,3 C 95 % 998,9 hPa 0,0 l/m 0 min 0 min 0 W/m 16,1 km/h (3 Bft) 100,00 %
02.12.2021 02:52 4,8 C 4,4 C 3,3 C 95 % 998,9 hPa 0,0 l/m 0 min 0 min 0 W/m 3,2 km/h (1 Bft) 100,00 %
02.12.2021 02:54 4,8 C 4,4 C 3,3 C 95 % 998,8 hPa 0,0 l/m 0 min 0 min 0 W/m 12,9 km/h (3 Bft) 100,00 %
02.12.2021 02:56 4,8 C 4,4 C 3,3 C 94 % 998,9 hPa 0,0 l/m 0 min 0 min 0 W/m 9,7 km/h (2 Bft) 97,87 %
02.12.2021 02:58 4,8 C 4,4 C 3,3 C 94 % 998,8 hPa 0,0 l/m 0 min 0 min 0 W/m 12,9 km/h (3 Bft) 97,83 %
02.12.2021 03:00 4,7 C 4,4 C 3,3 C 94 % 999,0 hPa 0,0 l/m 0 min 0 min 0 W/m 12,9 km/h (3 Bft) 97,87 %
02.12.2021 03:02 4,7 C 4,4 C 3,3 C 94 % 998,9 hPa 0,0 l/m 0 min 0 min 0 W/m 12,9 km/h (3 Bft) 97,87 %
02.12.2021 03:04 4,7 C 4,4 C 3,3 C 94 % 999,0 hPa 0,0 l/m 0 min 0 min 0 W/m 16,1 km/h (3 Bft) 97,87 %
02.12.2021 03:06 4,7 C 4,4 C 3,3 C 94 % 999,0 hPa 0,0 l/m 0 min 0 min 0 W/m 12,9 km/h (3 Bft) 95,74 %
02.12.2021 03:08 4,7 C 4,4 C 3,3 C 94 % 999,1 hPa 0,0 l/m 0 min 0 min 0 W/m 12,9 km/h (3 Bft) 95,74 %
02.12.2021 03:10 4,7 C 4,4 C 3,3 C 94 % 999,1 hPa 0,0 l/m 0 min 0 min 0 W/m 6,4 km/h (2 Bft) 97,83 %
02.12.2021 03:12 4,7 C 4,4 C 3,3 C 94 % 999,1 hPa 0,0 l/m 0 min 0 min 0 W/m 9,7 km/h (2 Bft) 97,87 %
02.12.2021 03:14 4,7 C 4,4 C 3,3 C 94 % 999,0 hPa 0,0 l/m 0 min 0 min 0 W/m 9,7 km/h (2 Bft) 97,87 %
02.12.2021 03:16 4,6 C 4,4 C 3,3 C 94 % 999,0 hPa 0,0 l/m 0 min 0 min 0 W/m 9,7 km/h (2 Bft) 97,87 %
02.12.2021 03:18 4,6 C 4,4 C 3,3 C 94 % 999,0 hPa 0,0 l/m 0 min 0 min 0 W/m 12,9 km/h (3 Bft) 97,87 %
02.12.2021 03:20 4,6 C 4,4 C 3,3 C 94 % 998,9 hPa 0,0 l/m 0 min 0 min 0 W/m 16,1 km/h (3 Bft) 95,74 %
02.12.2021 03:22 4,6 C 4,4 C 3,3 C 94 % 998,9 hPa 0,0 l/m 0 min 0 min 0 W/m 6,4 km/h (2 Bft) 97,83 %
02.12.2021 03:24 4,6 C 3,9 C 3,3 C 94 % 998,9 hPa 0,0 l/m 0 min 0 min 0 W/m 9,7 km/h (2 Bft) 95,74 %
02.12.2021 03:26 4,6 C 3,9 C 3,3 C 94 % 998,9 hPa 0,0 l/m 0 min 0 min 0 W/m 12,9 km/h (3 Bft) 100,00 %
02.12.2021 03:28 4,6 C 3,9 C 2,8 C 94 % 999,0 hPa 0,0 l/m 0 min 0 min 0 W/m 12,9 km/h (3 Bft) 100,00 %
02.12.2021 03:30 4,6 C 3,9 C 2,8 C 94 % 998,9 hPa 0,0 l/m 0 min 0 min 0 W/m 16,1 km/h (3 Bft) 100,00 %
02.12.2021 03:32 4,5 C 3,9 C 2,8 C 94 % 998,9 hPa 0,0 l/m 0 min 0 min 0 W/m 6,4 km/h (2 Bft) 100,00 %
02.12.2021 03:34 4,5 C 3,9 C 2,8 C 94 % 999,0 hPa 0,0 l/m 0 min 0 min 0 W/m 12,9 km/h (3 Bft) 100,00 %
02.12.2021 03:36 4,5 C 3,9 C 2,8 C 94 % 999,0 hPa 0,0 l/m 0 min 0 min 0 W/m 16,1 km/h (3 Bft) 100,00 %
02.12.2021 03:38 4,5 C 3,9 C 2,8 C 94 % 999,0 hPa 0,0 l/m 0 min 0 min 0 W/m 16,1 km/h (3 Bft) 97,87 %
02.12.2021 03:40 4,5 C 3,9 C 2,8 C 94 % 999,0 hPa 0,0 l/m 0 min 2 min 0 W/m 9,7 km/h (2 Bft) 97,87 %
02.12.2021 03:42 4,5 C 3,9 C 2,8 C 94 % 999,0 hPa 0,0 l/m 0 min 2 min 0 W/m 12,9 km/h (3 Bft) 100,00 %
02.12.2021 03:44 4,5 C 3,9 C 2,8 C 94 % 998,9 hPa 0,0 l/m 0 min 0 min 0 W/m 6,4 km/h (2 Bft) 100,00 %
02.12.2021 03:46 4,5 C 3,9 C 2,8 C 94 % 998,9 hPa 0,0 l/m 0 min 0 min 0 W/m 9,7 km/h (2 Bft) 95,65 %
02.12.2021 03:48 4,5 C 3,9 C 2,8 C 94 % 998,9 hPa 0,0 l/m 0 min 0 min 0 W/m 9,7 km/h (2 Bft) 100,00 %
02.12.2021 03:50 4,5 C 3,9 C 2,8 C 94 % 999,0 hPa 0,0 l/m 0 min 0 min 0 W/m 9,7 km/h (2 Bft) 100,00 %
02.12.2021 03:52 4,5 C 3,9 C 2,8 C 94 % 998,9 hPa 0,0 l/m 0 min 0 min 0 W/m 12,9 km/h (3 Bft) 97,87 %
02.12.2021 03:54 4,4 C 3,9 C 2,8 C 94 % 999,0 hPa 0,0 l/m 0 min 0 min 0 W/m 19,3 km/h (3 Bft) 97,87 %
02.12.2021 03:56 4,4 C 3,9 C 2,8 C 93 % 998,9 hPa 0,0 l/m 0 min 2 min 0 W/m 16,1 km/h (3 Bft) 97,87 %
02.12.2021 03:58 4,4 C 3,9 C 2,8 C 93 % 998,9 hPa 0,0 l/m 0 min 0 min 0 W/m 16,1 km/h (3 Bft) 97,83 %
02.12.2021 04:00 4,4 C 3,9 C 2,8 C 93 % 999,0 hPa 0,0 l/m 0 min 0 min 0 W/m 19,3 km/h (3 Bft) 97,87 %
02.12.2021 04:02 4,4 C 3,9 C 2,8 C 93 % 998,9 hPa 0,0 l/m 0 min 0 min 0 W/m 9,7 km/h (2 Bft) 93,75 %
02.12.2021 04:04 4,4 C 3,9 C 2,8 C 94 % 999,0 hPa 0,0 l/m 0 min 2 min 0 W/m 12,9 km/h (3 Bft) 97,87 %
02.12.2021 04:06 4,4 C 3,9 C 2,8 C 93 % 999,0 hPa 0,0 l/m 0 min 0 min 0 W/m 16,1 km/h (3 Bft) 97,87 %
02.12.2021 04:08 4,3 C 3,9 C 2,8 C 93 % 999,0 hPa 0,0 l/m 0 min 2 min 0 W/m 9,7 km/h (2 Bft) 95,74 %
02.12.2021 04:10 4,3 C 3,9 C 2,8 C 93 % 999,0 hPa 0,0 l/m 0 min 2 min 0 W/m 12,9 km/h (3 Bft) 95,65 %
02.12.2021 04:12 4,3 C 3,9 C 2,8 C 93 % 999,0 hPa 0,0 l/m 0 min 0 min 0 W/m 9,7 km/h (2 Bft) 95,74 %
02.12.2021 04:14 4,3 C 3,9 C 2,8 C 93 % 998,9 hPa 0,0 l/m 0 min 0 min 0 W/m 6,4 km/h (2 Bft) 95,74 %
02.12.2021 04:16 4,3 C 3,9 C 2,8 C 93 % 998,9 hPa 0,0 l/m 0 min 0 min 0 W/m 6,4 km/h (2 Bft) 91,49 %
02.12.2021 04:18 4,3 C 3,9 C 2,8 C 93 % 998,9 hPa 0,0 l/m 0 min 0 min 0 W/m 3,2 km/h (1 Bft) 93,62 %
02.12.2021 04:20 4,3 C 3,9 C 2,8 C 93 % 998,8 hPa 0,0 l/m 0 min 0 min 0 W/m 16,1 km/h (3 Bft) 95,65 %
02.12.2021 04:22 4,3 C 3,9 C 2,8 C 93 % 998,8 hPa 0,0 l/m 0 min 0 min 0 W/m 6,4 km/h (2 Bft) 93,62 %
02.12.2021 04:24 4,3 C 3,9 C 2,8 C 93 % 998,8 hPa 0,0 l/m 0 min 0 min 0 W/m 6,4 km/h (2 Bft) 95,74 %
02.12.2021 04:26 4,3 C 3,9 C 2,8 C 93 % 998,8 hPa 0,0 l/m 0 min 0 min 0 W/m 16,1 km/h (3 Bft) 93,62 %
02.12.2021 04:28 4,3 C 3,9 C 2,8 C 93 % 998,8 hPa 0,0 l/m 0 min 0 min 0 W/m 9,7 km/h (2 Bft) 95,74 %
02.12.2021 04:30 4,3 C 3,9 C 2,8 C 94 % 998,8 hPa 0,0 l/m 0 min 0 min 0 W/m 12,9 km/h (3 Bft) 95,74 %
02.12.2021 04:32 4,3 C 3,9 C 2,8 C 94 % 998,9 hPa 0,0 l/m 0 min 0 min 0 W/m 12,9 km/h (3 Bft) 95,65 %
02.12.2021 04:34 4,3 C 3,9 C 2,8 C 94 % 999,0 hPa 0,0 l/m 0 min 0 min 0 W/m 16,1 km/h (3 Bft) 97,87 %
02.12.2021 04:36 4,3 C 3,9 C 2,8 C 94 % 999,0 hPa 0,0 l/m 0 min 0 min 0 W/m 16,1 km/h (3 Bft) 97,87 %
02.12.2021 04:38 4,3 C 3,9 C 2,8 C 94 % 999,0 hPa 0,0 l/m 0 min 0 min 0 W/m 19,3 km/h (3 Bft) 100,00 %
02.12.2021 04:40 4,3 C 3,9 C 2,8 C 94 % 998,9 hPa 0,0 l/m 0 min 2 min 0 W/m 12,9 km/h (3 Bft) 97,87 %
02.12.2021 04:42 4,3 C 3,9 C 2,8 C 94 % 999,0 hPa 0,0 l/m 0 min 2 min 0 W/m 12,9 km/h (3 Bft) 93,62 %
02.12.2021 04:44 4,2 C 3,9 C 2,8 C 94 % 999,0 hPa 0,0 l/m 0 min 2 min 0 W/m 16,1 km/h (3 Bft) 95,65 %
02.12.2021 04:46 4,2 C 3,9 C 2,8 C 93 % 999,0 hPa 0,0 l/m 0 min 2 min 0 W/m 9,7 km/h (2 Bft) 93,62 %
02.12.2021 04:48 4,1 C 3,9 C 2,8 C 93 % 999,0 hPa 0,0 l/m 0 min 2 min 0 W/m 16,1 km/h (3 Bft) 95,74 %
02.12.2021 04:50 4,1 C 3,9 C 2,2 C 93 % 998,9 hPa 0,0 l/m 0 min 0 min 0 W/m 12,9 km/h (3 Bft) 93,62 %
02.12.2021 04:52 4,1 C 3,3 C 2,2 C 93 % 998,9 hPa 0,0 l/m 0 min 2 min 0 W/m 6,4 km/h (2 Bft) 93,62 %
02.12.2021 04:54 4,1 C 3,3 C 2,2 C 93 % 998,9 hPa 0,0 l/m 0 min 0 min 0 W/m 9,7 km/h (2 Bft) 95,74 %
02.12.2021 04:56 4,1 C 3,3 C 2,2 C 93 % 998,9 hPa 0,0 l/m 0 min 0 min 0 W/m 9,7 km/h (2 Bft) 95,65 %
02.12.2021 04:58 4,0 C 3,3 C 2,2 C 93 % 999,0 hPa 0,0 l/m 0 min 0 min 0 W/m 9,7 km/h (2 Bft) 95,74 %
02.12.2021 05:00 4,0 C 3,3 C 2,2 C 93 % 999,0 hPa 0,0 l/m 0 min 0 min 0 W/m 6,4 km/h (2 Bft) 93,62 %
02.12.2021 05:02 4,0 C 3,3 C 2,2 C 93 % 999,0 hPa 0,0 l/m 0 min 0 min 0 W/m 6,4 km/h (2 Bft) 91,49 %
02.12.2021 05:04 4,0 C 3,3 C 2,2 C 94 % 999,0 hPa 0,0 l/m 0 min 0 min 0 W/m 9,7 km/h (2 Bft) 93,75 %
02.12.2021 05:06 4,0 C 3,3 C 2,2 C 94 % 999,1 hPa 0,0 l/m 0 min 0 min 0 W/m 6,4 km/h (2 Bft) 95,74 %
02.12.2021 05:08 3,9 C 3,3 C 2,2 C 94 % 999,1 hPa 0,0 l/m 0 min 0 min 0 W/m 6,4 km/h (2 Bft) 93,48 %
02.12.2021 05:10 3,9 C 3,3 C 2,2 C 94 % 999,1 hPa 0,0 l/m 0 min 0 min 0 W/m 9,7 km/h (2 Bft) 97,87 %
02.12.2021 05:12 3,9 C 3,3 C 2,2 C 94 % 999,1 hPa 0,0 l/m 0 min 0 min 0 W/m 6,4 km/h (2 Bft) 100,00 %
02.12.2021 05:14 3,9 C 3,3 C 2,2 C 94 % 999,1 hPa 0,0 l/m 0 min 0 min 0 W/m 6,4 km/h (2 Bft) 100,00 %
02.12.2021 05:16 3,9 C 3,3 C 2,2 C 94 % 999,1 hPa 0,0 l/m 0 min 0 min 0 W/m 12,9 km/h (3 Bft) 100,00 %
02.12.2021 05:18 3,9 C 3,3 C 2,2 C 94 % 999,1 hPa 0,0 l/m 0 min 0 min 0 W/m 6,4 km/h (2 Bft) 97,87 %
02.12.2021 05:20 3,9 C 3,3 C 2,2 C 94 % 999,0 hPa 0,0 l/m 0 min 0 min 0 W/m 6,4 km/h (2 Bft) 100,00 %
02.12.2021 05:22 3,9 C 3,3 C 2,2 C 94 % 999,1 hPa 0,0 l/m 0 min 0 min 0 W/m 6,4 km/h (2 Bft) 100,00 %
02.12.2021 05:24 3,9 C 3,3 C 2,2 C 94 % 999,0 hPa 0,0 l/m 0 min 0 min 0 W/m 6,4 km/h (2 Bft) 100,00 %
02.12.2021 05:26 3,9 C 3,3 C 2,2 C 94 % 999,1 hPa 0,0 l/m 0 min 0 min 0 W/m 6,4 km/h (2 Bft) 100,00 %
02.12.2021 05:28 3,9 C 3,3 C 2,2 C 94 % 999,0 hPa 0,0 l/m 0 min 0 min 0 W/m 19,3 km/h (3 Bft) 97,87 %
02.12.2021 05:30 3,9 C 3,3 C 2,2 C 94 % 999,1 hPa 0,0 l/m 0 min 0 min 0 W/m 9,7 km/h (2 Bft) 100,00 %
02.12.2021 05:32 3,8 C 3,3 C 2,2 C 94 % 999,1 hPa 0,0 l/m 0 min 0 min 0 W/m 6,4 km/h (2 Bft) 97,87 %
02.12.2021 05:34 3,8 C 3,3 C 2,2 C 94 % 999,2 hPa 0,0 l/m 0 min 0 min 0 W/m 9,7 km/h (2 Bft) 97,87 %
02.12.2021 05:36 3,8 C 3,3 C 2,2 C 94 % 999,2 hPa 0,0 l/m 0 min 0 min 0 W/m 9,7 km/h (2 Bft) 100,00 %
02.12.2021 05:38 3,8 C 3,3 C 2,2 C 94 % 999,2 hPa 0,0 l/m 0 min 0 min 0 W/m 6,4 km/h (2 Bft) 100,00 %
02.12.2021 05:40 3,8 C 3,3 C 2,2 C 94 % 999,2 hPa 0,0 l/m 0 min 0 min 0 W/m 9,7 km/h (2 Bft) 100,00 %
02.12.2021 05:42 3,8 C 3,3 C 2,2 C 94 % 999,2 hPa 0,0 l/m 0 min 0 min 0 W/m 19,3 km/h (3 Bft) 100,00 %
02.12.2021 05:44 3,7 C 3,3 C 2,2 C 94 % 999,3 hPa 0,0 l/m 0 min 0 min 0 W/m 16,1 km/h (3 Bft) 100,00 %
02.12.2021 05:46 3,7 C 3,3 C 2,2 C 94 % 999,3 hPa 0,0 l/m 0 min 0 min 0 W/m 16,1 km/h (3 Bft) 100,00 %
02.12.2021 05:48 3,6 C 3,3 C 2,2 C 94 % 999,3 hPa 0,0 l/m 0 min 0 min 0 W/m 12,9 km/h (3 Bft) 100,00 %
02.12.2021 05:50 3,6 C 3,3 C 2,2 C 94 % 999,2 hPa 0,0 l/m 0 min 0 min 0 W/m 9,7 km/h (2 Bft) 100,00 %
02.12.2021 05:52 3,6 C 3,3 C 2,2 C 94 % 999,2 hPa 0,0 l/m 0 min 0 min 0 W/m 16,1 km/h (3 Bft) 100,00 %
02.12.2021 05:54 3,6 C 3,3 C 2,2 C 94 % 999,2 hPa 0,0 l/m 0 min 0 min 0 W/m 6,4 km/h (2 Bft) 97,83 %
02.12.2021 05:56 3,6 C 3,3 C 2,2 C 94 % 999,2 hPa 0,0 l/m 0 min 0 min 0 W/m 6,4 km/h (2 Bft) 100,00 %
02.12.2021 05:58 3,6 C 3,3 C 2,2 C 94 % 999,3 hPa 0,0 l/m 0 min 0 min 0 W/m 12,9 km/h (3 Bft) 97,87 %
02.12.2021 06:00 3,6 C 3,3 C 2,2 C 94 % 999,2 hPa 0,0 l/m 0 min 0 min 0 W/m 9,7 km/h (2 Bft) 100,00 %
02.12.2021 06:02 3,6 C 3,3 C 2,2 C 94 % 999,2 hPa 0,0 l/m 0 min 0 min 0 W/m 9,7 km/h (2 Bft) 100,00 %
02.12.2021 06:04 3,6 C 3,3 C 2,2 C 94 % 999,2 hPa 0,0 l/m 0 min 0 min 0 W/m 6,4 km/h (2 Bft) 97,87 %
02.12.2021 06:08 3,6 C 3,3 C 2,2 C 94 % 999,2 hPa 0,0 l/m 0 min 0 min 0 W/m 6,4 km/h (2 Bft) 100,00 %
02.12.2021 06:10 3,6 C 3,3 C 2,2 C 94 % 999,2 hPa 0,0 l/m 0 min 0 min 0 W/m 6,4 km/h (2 Bft) 100,00 %
02.12.2021 06:12 3,7 C 3,3 C 2,2 C 94 % 999,2 hPa 0,0 l/m 0 min 0 min 0 W/m 6,4 km/h (2 Bft) 100,00 %
02.12.2021 06:14 3,7 C 3,3 C 2,2 C 94 % 999,2 hPa 0,0 l/m 0 min 0 min 0 W/m 6,4 km/h (2 Bft) 98,00 %
02.12.2021 06:16 3,7 C 3,3 C 2,2 C 94 % 999,3 hPa 0,0 l/m 0 min 0 min 0 W/m 9,7 km/h (2 Bft) 95,83 %
02.12.2021 06:18 3,7 C 3,3 C 2,2 C 94 % 999,3 hPa 0,0 l/m 0 min 0 min 0 W/m 6,4 km/h (2 Bft) 97,83 %
02.12.2021 06:20 3,6 C 3,3 C 2,2 C 94 % 999,2 hPa 0,0 l/m 0 min 0 min 0 W/m 12,9 km/h (3 Bft) 97,67 %
02.12.2021 06:22 3,6 C 3,3 C 2,2 C 94 % 999,1 hPa 0,0 l/m 0 min 0 min 0 W/m 9,7 km/h (2 Bft) 97,87 %
02.12.2021 06:24 3,6 C 3,3 C 2,2 C 94 % 999,2 hPa 0,0 l/m 0 min 0 min 0 W/m 9,7 km/h (2 Bft) 97,87 %
02.12.2021 06:26 3,6 C 3,3 C 2,2 C 94 % 999,2 hPa 0,0 l/m 0 min 0 min 0 W/m 6,4 km/h (2 Bft) 95,74 %
02.12.2021 06:28 3,6 C 3,3 C 2,2 C 94 % 999,2 hPa 0,0 l/m 0 min 0 min 0 W/m 12,9 km/h (3 Bft) 97,87 %
02.12.2021 06:30 3,6 C 3,3 C 2,2 C 94 % 999,2 hPa 0,0 l/m 0 min 0 min 0 W/m 9,7 km/h (2 Bft) 95,65 %
02.12.2021 06:32 3,6 C 3,3 C 2,2 C 94 % 999,3 hPa 0,0 l/m 0 min 0 min 0 W/m 6,4 km/h (2 Bft) 95,74 %
02.12.2021 06:34 3,6 C 3,3 C 2,2 C 94 % 999,2 hPa 0,0 l/m 0 min 0 min 0 W/m 9,7 km/h (2 Bft) 93,62 %
02.12.2021 06:36 3,6 C 3,3 C 2,2 C 94 % 999,2 hPa 0,0 l/m 0 min 0 min 0 W/m 12,9 km/h (3 Bft) 93,62 %
02.12.2021 06:38 3,6 C 2,8 C 2,2 C 94 % 999,2 hPa 0,0 l/m 0 min 0 min 0 W/m 6,4 km/h (2 Bft) 95,74 %
02.12.2021 06:40 3,6 C 2,8 C 2,2 C 94 % 999,1 hPa 0,0 l/m 0 min 0 min 0 W/m 6,4 km/h (2 Bft) 95,74 %
02.12.2021 06:42 3,6 C 2,8 C 2,2 C 94 % 999,1 hPa 0,0 l/m 0 min 0 min 0 W/m 6,4 km/h (2 Bft) 95,65 %
02.12.2021 06:44 3,5 C 2,8 C 2,2 C 94 % 999,1 hPa 0,0 l/m 0 min 0 min 0 W/m 9,7 km/h (2 Bft) 95,74 %
02.12.2021 06:46 3,5 C 2,8 C 2,2 C 94 % 999,2 hPa 0,0 l/m 0 min 0 min 0 W/m 19,3 km/h (3 Bft) 95,74 %
02.12.2021 06:48 3,5 C 2,8 C 2,2 C 94 % 999,2 hPa 0,0 l/m 0 min 0 min 0 W/m 6,4 km/h (2 Bft) 93,62 %
02.12.2021 06:50 3,5 C 2,8 C 2,2 C 94 % 999,2 hPa 0,0 l/m 0 min 0 min 0 W/m 12,9 km/h (3 Bft) 95,74 %
02.12.2021 06:52 3,5 C 2,8 C 2,2 C 94 % 999,2 hPa 0,0 l/m 0 min 0 min 0 W/m 6,4 km/h (2 Bft) 97,87 %
02.12.2021 06:54 3,5 C 2,8 C 2,2 C 94 % 999,2 hPa 0,0 l/m 0 min 0 min 0 W/m 6,4 km/h (2 Bft) 95,65 %
02.12.2021 06:56 3,5 C 2,8 C 2,2 C 94 % 999,3 hPa 0,0 l/m 0 min 0 min 0 W/m 9,7 km/h (2 Bft) 95,74 %
02.12.2021 06:58 3,5 C 2,8 C 2,2 C 94 % 999,2 hPa 0,0 l/m 0 min 0 min 0 W/m 6,4 km/h (2 Bft) 97,87 %
02.12.2021 07:00 3,4 C 2,8 C 2,2 C 94 % 999,3 hPa 0,0 l/m 0 min 0 min 0 W/m 6,4 km/h (2 Bft) 100,00 %
02.12.2021 07:02 3,4 C 2,8 C 2,2 C 94 % 999,4 hPa 0,0 l/m 0 min 0 min 0 W/m 6,4 km/h (2 Bft) 100,00 %
02.12.2021 07:04 3,4 C 2,8 C 1,7 C 94 % 999,3 hPa 0,0 l/m 0 min 0 min 0 W/m 12,9 km/h (3 Bft) 100,00 %
02.12.2021 07:06 3,4 C 2,8 C 1,7 C 94 % 999,4 hPa 0,0 l/m 0 min 0 min 0 W/m 6,4 km/h (2 Bft) 100,00 %
02.12.2021 07:08 3,4 C 2,8 C 1,7 C 94 % 999,4 hPa 0,0 l/m 0 min 0 min 0 W/m 6,4 km/h (2 Bft) 97,87 %
02.12.2021 07:10 3,4 C 2,8 C 1,7 C 94 % 999,4 hPa 0,0 l/m 0 min 0 min 0 W/m 6,4 km/h (2 Bft) 97,87 %
02.12.2021 07:12 3,4 C 2,8 C 1,7 C 94 % 999,4 hPa 0,0 l/m 0 min 0 min 0 W/m 9,7 km/h (2 Bft) 95,74 %
02.12.2021 07:14 3,3 C 2,8 C 1,7 C 94 % 999,4 hPa 0,0 l/m 0 min 0 min 0 W/m 6,4 km/h (2 Bft) 100,00 %
02.12.2021 07:16 3,3 C 2,8 C 1,7 C 94 % 999,4 hPa 0,0 l/m 0 min 0 min 0 W/m 6,4 km/h (2 Bft) 97,87 %
02.12.2021 07:18 3,3 C 2,8 C 1,7 C 94 % 999,5 hPa 0,0 l/m 0 min 0 min 0 W/m 12,9 km/h (3 Bft) 97,83 %
02.12.2021 07:20 3,3 C 2,8 C 1,7 C 94 % 999,5 hPa 0,0 l/m 0 min 0 min 0 W/m 12,9 km/h (3 Bft) 100,00 %
02.12.2021 07:22 3,2 C 2,8 C 1,7 C 94 % 999,5 hPa 0,0 l/m 0 min 0 min 0 W/m 12,9 km/h (3 Bft) 100,00 %
02.12.2021 07:24 3,2 C 2,8 C 1,7 C 94 % 999,5 hPa 0,0 l/m 0 min 0 min 0 W/m 12,9 km/h (3 Bft) 100,00 %
02.12.2021 07:26 3,2 C 2,8 C 1,7 C 94 % 999,6 hPa 0,0 l/m 0 min 0 min 0 W/m 6,4 km/h (2 Bft) 100,00 %
02.12.2021 07:28 3,1 C 2,8 C 1,7 C 94 % 999,6 hPa 0,0 l/m 0 min 0 min 0 W/m 6,4 km/h (2 Bft) 100,00 %
02.12.2021 07:30 3,1 C 2,8 C 1,7 C 94 % 999,7 hPa 0,0 l/m 0 min 0 min 0 W/m 9,7 km/h (2 Bft) 100,00 %
02.12.2021 07:32 3,1 C 2,8 C 1,7 C 94 % 999,7 hPa 0,0 l/m 0 min 0 min 0 W/m 9,7 km/h (2 Bft) 100,00 %
02.12.2021 07:34 3,0 C 2,8 C 1,7 C 94 % 999,7 hPa 0,0 l/m 0 min 0 min 0 W/m 12,9 km/h (3 Bft) 97,87 %
02.12.2021 07:36 3,0 C 2,8 C 1,7 C 94 % 999,7 hPa 0,0 l/m 0 min 0 min 0 W/m 12,9 km/h (3 Bft) 95,74 %
02.12.2021 07:38 3,0 C 2,8 C 1,7 C 94 % 999,8 hPa 0,0 l/m 0 min 0 min 0 W/m 16,1 km/h (3 Bft) 95,74 %
02.12.2021 07:40 3,0 C 2,8 C 1,7 C 94 % 999,8 hPa 0,0 l/m 0 min 0 min 0 W/m 16,1 km/h (3 Bft) 97,87 %
02.12.2021 07:42 3,0 C 2,8 C 1,7 C 94 % 999,8 hPa 0,0 l/m 0 min 0 min 0 W/m 12,9 km/h (3 Bft) 97,83 %
02.12.2021 07:44 3,0 C 2,8 C 1,7 C 94 % 999,8 hPa 0,0 l/m 0 min 0 min 0 W/m 9,7 km/h (2 Bft) 97,87 %
02.12.2021 07:46 3,0 C 2,8 C 1,7 C 94 % 999,8 hPa 0,0 l/m 0 min 0 min 0 W/m 12,9 km/h (3 Bft) 97,87 %
02.12.2021 07:48 3,0 C 2,8 C 1,7 C 94 % 999,9 hPa 0,0 l/m 0 min 0 min 0 W/m 12,9 km/h (3 Bft) 97,87 %
02.12.2021 07:50 3,1 C 2,8 C 1,7 C 94 % 999,9 hPa 0,0 l/m 0 min 0 min 0 W/m 12,9 km/h (3 Bft) 97,87 %
02.12.2021 07:52 3,1 C 2,8 C 1,7 C 94 % 999,9 hPa 0,0 l/m 0 min 0 min 0 W/m 12,9 km/h (3 Bft) 97,87 %
02.12.2021 07:54 3,1 C 2,8 C 1,7 C 95 % 999,9 hPa 0,0 l/m 0 min 0 min 0 W/m 16,1 km/h (3 Bft) 97,83 %
02.12.2021 07:56 3,1 C 2,8 C 1,7 C 94 % 999,9 hPa 0,0 l/m 0 min 0 min 0 W/m 12,9 km/h (3 Bft) 95,74 %
02.12.2021 07:58 3,1 C 2,8 C 1,7 C 94 % 999,8 hPa 0,0 l/m 0 min 0 min 0 W/m 16,1 km/h (3 Bft) 97,87 %
02.12.2021 08:00 3,1 C 2,8 C 1,7 C 94 % 999,9 hPa 0,0 l/m 0 min 0 min 0 W/m 19,3 km/h (3 Bft) 97,87 %
02.12.2021 08:02 3,1 C 2,8 C 1,7 C 94 % 999,9 hPa 0,0 l/m 0 min 0 min 0 W/m 12,9 km/h (3 Bft) 97,92 %
02.12.2021 08:04 3,1 C 2,8 C 1,7 C 94 % 1000,0 hPa 0,0 l/m 0 min 0 min 0 W/m 12,9 km/h (3 Bft) 97,83 %
02.12.2021 08:06 3,1 C 2,8 C 1,7 C 94 % 1000,1 hPa 0,0 l/m 0 min 0 min 0 W/m 12,9 km/h (3 Bft) 97,87 %
02.12.2021 08:08 3,1 C 2,8 C 1,7 C 94 % 1000,0 hPa 0,0 l/m 0 min 0 min 0 W/m 16,1 km/h (3 Bft) 93,62 %
02.12.2021 08:10 3,1 C 2,8 C 1,7 C 94 % 1000,1 hPa 0,0 l/m 0 min 0 min 0 W/m 22,5 km/h (4 Bft) 97,87 %
02.12.2021 08:12 3,1 C 2,8 C 1,7 C 94 % 1000,1 hPa 0,0 l/m 0 min 0 min 0 W/m 12,9 km/h (3 Bft) 95,74 %
02.12.2021 08:14 3,1 C 2,8 C 1,7 C 94 % 1000,1 hPa 0,0 l/m 0 min 0 min 0 W/m 12,9 km/h (3 Bft) 97,87 %
02.12.2021 08:16 3,2 C 2,8 C 1,7 C 94 % 1000,1 hPa 0,0 l/m 0 min 0 min 0 W/m 12,9 km/h (3 Bft) 95,65 %
02.12.2021 08:18 3,2 C 2,8 C 1,7 C 94 % 1000,2 hPa 0,0 l/m 0 min 0 min 0 W/m 12,9 km/h (3 Bft) 95,74 %
02.12.2021 08:20 3,2 C 2,8 C 1,7 C 94 % 1000,2 hPa 0,0 l/m 0 min 0 min 0 W/m 12,9 km/h (3 Bft) 95,74 %
02.12.2021 08:22 3,1 C 2,8 C 1,7 C 94 % 1000,2 hPa 0,0 l/m 0 min 0 min 0 W/m 16,1 km/h (3 Bft) 95,74 %
02.12.2021 08:24 3,1 C 2,8 C 1,7 C 94 % 1000,3 hPa 0,0 l/m 0 min 0 min 0 W/m 12,9 km/h (3 Bft) 95,74 %
02.12.2021 08:26 3,1 C 2,8 C 1,7 C 94 % 1000,3 hPa 0,0 l/m 0 min 0 min 0 W/m 12,9 km/h (3 Bft) 95,74 %
02.12.2021 08:28 3,1 C 2,8 C 1,7 C 94 % 1000,3 hPa 0,0 l/m 0 min 2 min 2 W/m 16,1 km/h (3 Bft) 95,65 %
02.12.2021 08:30 3,1 C 2,8 C 1,7 C 94 % 1000,2 hPa 0,0 l/m 0 min 2 min 5 W/m 9,7 km/h (2 Bft) 97,87 %
02.12.2021 08:32 3,1 C 2,8 C 1,7 C 94 % 1000,3 hPa 0,0 l/m 0 min 2 min 6 W/m 9,7 km/h (2 Bft) 93,62 %
02.12.2021 08:34 3,1 C 2,8 C 1,7 C 94 % 1000,3 hPa 0,0 l/m 0 min 2 min 7 W/m 16,1 km/h (3 Bft) 97,87 %
02.12.2021 08:36 3,1 C 2,8 C 1,7 C 94 % 1000,3 hPa 0,0 l/m 0 min 2 min 7 W/m 16,1 km/h (3 Bft) 93,62 %
02.12.2021 08:38 3,1 C 2,8 C 1,7 C 94 % 1000,4 hPa 0,0 l/m 0 min 2 min 7 W/m 12,9 km/h (3 Bft) 97,87 %
02.12.2021 08:40 3,1 C 2,8 C 1,7 C 94 % 1000,5 hPa 0,0 l/m 0 min 0 min 7 W/m 12,9 km/h (3 Bft) 97,83 %
02.12.2021 08:42 3,1 C 2,8 C 1,7 C 94 % 1000,5 hPa 0,0 l/m 0 min 2 min 7 W/m 12,9 km/h (3 Bft) 95,74 %
02.12.2021 08:43 3,1 C 2,8 C 1,7 C 94 % 1000,5 hPa 0,0 l/m 0 min 1 min 7 W/m 16,1 km/h (3 Bft) 95,74 %
02.12.2021 08:46 3,1 C 2,8 C 1,7 C 94 % 1000,5 hPa 0,0 l/m 0 min 0 min 7 W/m 12,9 km/h (3 Bft) 95,74 %
02.12.2021 08:48 3,0 C 2,8 C 1,7 C 94 % 1000,5 hPa 0,0 l/m 0 min 2 min 10 W/m 12,9 km/h (3 Bft) 97,87 %
02.12.2021 08:50 3,0 C 2,8 C 1,7 C 94 % 1000,5 hPa 0,0 l/m 0 min 2 min 13 W/m 9,7 km/h (2 Bft) 95,74 %
02.12.2021 08:52 3,0 C 2,8 C 1,7 C 94 % 1000,6 hPa 0,0 l/m 0 min 2 min 18 W/m 6,4 km/h (2 Bft) 95,65 %
02.12.2021 08:54 3,0 C 2,8 C 1,7 C 94 % 1000,6 hPa 0,0 l/m 0 min 0 min 26 W/m 9,7 km/h (2 Bft) 97,87 %
02.12.2021 08:56 3,0 C 2,8 C 1,7 C 94 % 1000,6 hPa 0,0 l/m 0 min 0 min 34 W/m 6,4 km/h (2 Bft) 97,87 %
02.12.2021 08:58 3,0 C 2,8 C 1,7 C 94 % 1000,6 hPa 0,0 l/m 2 min 0 min 41 W/m 6,4 km/h (2 Bft) 97,87 %
02.12.2021 09:00 3,0 C 2,8 C 1,7 C 94 % 1000,6 hPa 0,0 l/m 2 min 0 min 44 W/m 12,9 km/h (3 Bft) 97,87 %
02.12.2021 09:02 3,0 C 2,8 C 1,7 C 94 % 1000,6 hPa 0,0 l/m 0 min 0 min 42 W/m 9,7 km/h (2 Bft) 97,92 %
02.12.2021 09:04 3,0 C 2,8 C 1,7 C 94 % 1000,7 hPa 0,0 l/m 0 min 0 min 38 W/m 19,3 km/h (3 Bft) 97,83 %
02.12.2021 09:06 3,0 C 2,8 C 1,7 C 94 % 1000,7 hPa 0,0 l/m 0 min 0 min 32 W/m 16,1 km/h (3 Bft) 97,87 %
02.12.2021 09:08 3,0 C 2,8 C 1,7 C 94 % 1000,7 hPa 0,0 l/m 0 min 0 min 30 W/m 16,1 km/h (3 Bft) 97,87 %
02.12.2021 09:10 2,9 C 2,8 C 1,7 C 94 % 1000,8 hPa 0,0 l/m 0 min 0 min 31 W/m 12,9 km/h (3 Bft) 97,87 %
02.12.2021 09:12 2,9 C 2,8 C 1,7 C 94 % 1000,8 hPa 0,0 l/m 0 min 0 min 32 W/m 9,7 km/h (2 Bft) 97,87 %
02.12.2021 09:14 2,9 C 2,8 C 1,7 C 94 % 1000,8 hPa 0,0 l/m 0 min 0 min 30 W/m 16,1 km/h (3 Bft) 97,87 %
02.12.2021 09:16 2,9 C 2,8 C 1,7 C 94 % 1000,9 hPa 0,0 l/m 0 min 0 min 26 W/m 9,7 km/h (2 Bft) 95,65 %
02.12.2021 09:18 2,9 C 2,8 C 1,7 C 94 % 1000,9 hPa 0,0 l/m 0 min 0 min 30 W/m 9,7 km/h (2 Bft) 95,74 %
02.12.2021 09:20 2,9 C 2,8 C 1,7 C 94 % 1001,0 hPa 0,0 l/m 0 min 0 min 37 W/m 16,1 km/h (3 Bft) 97,87 %
02.12.2021 09:22 2,9 C 2,8 C 1,7 C 94 % 1000,9 hPa 0,0 l/m 0 min 0 min 49 W/m 3,2 km/h (1 Bft) 97,87 %
02.12.2021 09:24 2,9 C 2,8 C 1,7 C 94 % 1000,9 hPa 0,0 l/m 0 min 0 min 59 W/m 3,2 km/h (1 Bft) 95,74 %
02.12.2021 09:26 2,9 C 2,8 C 1,7 C 94 % 1001,0 hPa 0,0 l/m 0 min 0 min 60 W/m 12,9 km/h (3 Bft) 100,00 %
02.12.2021 09:28 2,9 C 2,8 C 1,7 C 94 % 1001,0 hPa 0,0 l/m 0 min 0 min 49 W/m 9,7 km/h (2 Bft) 100,00 %
02.12.2021 09:30 2,9 C 2,8 C 1,7 C 94 % 1001,0 hPa 0,0 l/m 0 min 0 min 39 W/m 12,9 km/h (3 Bft) 100,00 %
02.12.2021 09:32 2,9 C 2,8 C 1,7 C 94 % 1001,0 hPa 0,0 l/m 0 min 0 min 33 W/m 12,9 km/h (3 Bft) 100,00 %
02.12.2021 09:34 2,8 C 2,8 C 1,7 C 94 % 1001,1 hPa 0,0 l/m 0 min 0 min 31 W/m 12,9 km/h (3 Bft) 100,00 %
02.12.2021 09:36 2,8 C 2,8 C 1,7 C 94 % 1001,2 hPa 0,0 l/m 0 min 0 min 27 W/m 9,7 km/h (2 Bft) 100,00 %
02.12.2021 09:38 2,8 C 2,2 C 1,7 C 94 % 1001,2 hPa 0,0 l/m 0 min 0 min 28 W/m 12,9 km/h (3 Bft) 100,00 %
02.12.2021 09:40 2,7 C 2,2 C 1,7 C 94 % 1001,3 hPa 0,0 l/m 0 min 0 min 29 W/m 12,9 km/h (3 Bft) 100,00 %
02.12.2021 09:42 2,6 C 2,2 C 1,1 C 94 % 1001,3 hPa 0,0 l/m 0 min 0 min 31 W/m 16,1 km/h (3 Bft) 97,87 %
02.12.2021 09:44 2,6 C 2,2 C 1,1 C 94 % 1001,3 hPa 0,0 l/m 0 min 0 min 42 W/m 9,7 km/h (2 Bft) 100,00 %
02.12.2021 09:46 2,6 C 2,2 C 1,7 C 94 % 1001,4 hPa 0,0 l/m 0 min 0 min 67 W/m 12,9 km/h (3 Bft) 97,87 %
02.12.2021 09:48 2,6 C 2,8 C 1,7 C 94 % 1001,4 hPa 0,0 l/m 0 min 0 min 71 W/m 12,9 km/h (3 Bft) 100,00 %
02.12.2021 09:50 2,7 C 2,8 C 1,7 C 94 % 1001,4 hPa 0,0 l/m 0 min 0 min 60 W/m 12,9 km/h (3 Bft) 100,00 %
02.12.2021 09:52 2,7 C 2,8 C 1,7 C 94 % 1001,4 hPa 0,0 l/m 0 min 0 min 34 W/m 12,9 km/h (3 Bft) 100,00 %
02.12.2021 09:54 2,8 C 2,8 C 1,7 C 94 % 1001,4 hPa 0,0 l/m 0 min 0 min 37 W/m 9,7 km/h (2 Bft) 100,00 %
02.12.2021 09:56 2,8 C 2,8 C 1,7 C 94 % 1001,4 hPa 0,0 l/m 0 min 0 min 48 W/m 9,7 km/h (2 Bft) 100,00 %
02.12.2021 09:58 2,8 C 2,8 C 1,7 C 94 % 1001,5 hPa 0,0 l/m 0 min 0 min 41 W/m 12,9 km/h (3 Bft) 100,00 %
02.12.2021 10:00 2,9 C 2,8 C 1,7 C 94 % 1001,5 hPa 0,0 l/m 0 min 0 min 59 W/m 6,4 km/h (2 Bft) 100,00 %
02.12.2021 10:02 2,9 C 2,8 C 1,7 C 94 % 1001,5 hPa 0,0 l/m 0 min 0 min 61 W/m 12,9 km/h (3 Bft) 97,87 %
02.12.2021 10:04 2,9 C 2,8 C 1,7 C 94 % 1001,5 hPa 0,0 l/m 0 min 0 min 55 W/m 12,9 km/h (3 Bft) 100,00 %
02.12.2021 10:06 2,9 C 2,8 C 1,7 C 94 % 1001,5 hPa 0,0 l/m 0 min 0 min 39 W/m 12,9 km/h (3 Bft) 100,00 %
02.12.2021 10:08 2,9 C 2,8 C 1,7 C 94 % 1001,5 hPa 0,0 l/m 0 min 0 min 56 W/m 19,3 km/h (3 Bft) 97,87 %
02.12.2021 10:10 2,9 C 2,8 C 1,7 C 94 % 1001,5 hPa 0,0 l/m 0 min 0 min 81 W/m 12,9 km/h (3 Bft) 95,74 %
02.12.2021 10:12 2,9 C 2,8 C 1,7 C 94 % 1001,5 hPa 0,0 l/m 0 min 0 min 58 W/m 9,7 km/h (2 Bft) 97,87 %
02.12.2021 10:14 2,9 C 2,8 C 1,7 C 94 % 1001,6 hPa 0,0 l/m 0 min 0 min 68 W/m 12,9 km/h (3 Bft) 97,83 %
02.12.2021 10:16 2,9 C 2,8 C 1,7 C 94 % 1001,6 hPa 0,0 l/m 0 min 0 min 56 W/m 12,9 km/h (3 Bft) 95,74 %
02.12.2021 10:18 2,9 C 2,8 C 1,7 C 94 % 1001,7 hPa 0,0 l/m 0 min 0 min 63 W/m 12,9 km/h (3 Bft) 97,87 %
02.12.2021 10:20 2,9 C 2,8 C 1,7 C 94 % 1001,7 hPa 0,0 l/m 0 min 0 min 64 W/m 19,3 km/h (3 Bft) 97,87 %
02.12.2021 10:22 2,9 C 2,8 C 1,7 C 94 % 1001,8 hPa 0,0 l/m 0 min 0 min 60 W/m 12,9 km/h (3 Bft) 95,74 %
02.12.2021 10:24 2,9 C 2,8 C 1,7 C 94 % 1001,7 hPa 0,0 l/m 0 min 0 min 70 W/m 16,1 km/h (3 Bft) 97,87 %
02.12.2021 10:26 2,9 C 2,8 C 1,7 C 94 % 1001,8 hPa 0,0 l/m 0 min 0 min 104 W/m 12,9 km/h (3 Bft) 97,83 %
02.12.2021 10:28 3,0 C 3,3 C 2,2 C 94 % 1001,8 hPa 0,0 l/m 0 min 0 min 105 W/m 12,9 km/h (3 Bft) 100,00 %
02.12.2021 10:30 3,0 C 3,3 C 2,2 C 94 % 1001,8 hPa 0,0 l/m 2 min 0 min 141 W/m 16,1 km/h (3 Bft) 97,87 %
02.12.2021 10:32 3,0 C 3,3 C 2,2 C 94 % 1001,8 hPa 0,0 l/m 2 min 0 min 202 W/m 6,4 km/h (2 Bft) 97,92 %
02.12.2021 10:34 3,0 C 3,3 C 2,2 C 94 % 1001,9 hPa 0,0 l/m 0 min 0 min 118 W/m 9,7 km/h (2 Bft) 97,87 %
02.12.2021 10:36 3,1 C 3,3 C 2,2 C 94 % 1001,9 hPa 0,0 l/m 2 min 0 min 130 W/m 12,9 km/h (3 Bft) 97,87 %
02.12.2021 10:38 3,1 C 3,3 C 2,2 C 94 % 1001,9 hPa 0,0 l/m 2 min 0 min 201 W/m 12,9 km/h (3 Bft) 97,83 %
02.12.2021 10:40 3,1 C 3,3 C 2,2 C 94 % 1001,9 hPa 0,0 l/m 2 min 0 min 248 W/m 12,9 km/h (3 Bft) 100,00 %
02.12.2021 10:42 3,1 C 3,3 C 2,2 C 94 % 1001,9 hPa 0,0 l/m 2 min 0 min 266 W/m 12,9 km/h (3 Bft) 95,74 %
02.12.2021 10:44 3,2 C 3,9 C 2,2 C 94 % 1002,0 hPa 0,0 l/m 2 min 0 min 312 W/m 19,3 km/h (3 Bft) 95,74 %
02.12.2021 10:46 3,3 C 3,9 C 2,2 C 94 % 1002,0 hPa 0,0 l/m 2 min 0 min 311 W/m 12,9 km/h (3 Bft) 93,62 %
02.12.2021 10:48 3,4 C 3,9 C 2,2 C 94 % 1002,0 hPa 0,0 l/m 2 min 0 min 232 W/m 12,9 km/h (3 Bft) 97,83 %
02.12.2021 10:50 3,5 C 4,4 C 2,8 C 94 % 1002,0 hPa 0,0 l/m 2 min 0 min 314 W/m 6,4 km/h (2 Bft) 97,87 %
02.12.2021 10:52 3,5 C 4,4 C 2,8 C 94 % 1002,0 hPa 0,0 l/m 2 min 0 min 206 W/m 9,7 km/h (2 Bft) 97,87 %
02.12.2021 10:54 3,6 C 3,9 C 2,8 C 94 % 1002,0 hPa 0,0 l/m 0 min 0 min 119 W/m 12,9 km/h (3 Bft) 95,74 %
02.12.2021 10:56 3,6 C 3,9 C 2,8 C 94 % 1002,0 hPa 0,0 l/m 0 min 0 min 133 W/m 12,9 km/h (3 Bft) 97,87 %
02.12.2021 10:58 3,5 C 3,9 C 2,2 C 93 % 1002,0 hPa 0,0 l/m 0 min 0 min 121 W/m 16,1 km/h (3 Bft) 97,87 %
02.12.2021 11:00 3,5 C 3,9 C 2,2 C 93 % 1002,0 hPa 0,0 l/m 0 min 0 min 104 W/m 9,7 km/h (2 Bft) 97,83 %
02.12.2021 11:02 3,6 C 3,9 C 2,2 C 93 % 1002,0 hPa 0,0 l/m 2 min 0 min 325 W/m 12,9 km/h (3 Bft) 95,74 %
02.12.2021 11:04 3,6 C 3,9 C 2,2 C 93 % 1002,0 hPa 0,0 l/m 2 min 0 min 267 W/m 6,4 km/h (2 Bft) 95,74 %
02.12.2021 11:06 3,6 C 3,9 C 2,2 C 93 % 1002,0 hPa 0,0 l/m 2 min 0 min 186 W/m 12,9 km/h (3 Bft) 95,74 %
02.12.2021 11:08 3,7 C 3,9 C 2,2 C 93 % 1002,0 hPa 0,0 l/m 2 min 0 min 208 W/m 19,3 km/h (3 Bft) 95,74 %
02.12.2021 11:10 3,7 C 3,9 C 2,2 C 93 % 1002,0 hPa 0,0 l/m 0 min 0 min 127 W/m 16,1 km/h (3 Bft) 97,87 %
02.12.2021 11:12 3,6 C 3,9 C 2,2 C 92 % 1002,0 hPa 0,0 l/m 0 min 0 min 76 W/m 19,3 km/h (3 Bft) 100,00 %
02.12.2021 11:14 3,6 C 3,9 C 2,2 C 92 % 1002,0 hPa 0,0 l/m 0 min 0 min 72 W/m 12,9 km/h (3 Bft) 100,00 %
02.12.2021 11:16 3,6 C 3,3 C 2,2 C 92 % 1002,0 hPa 0,0 l/m 0 min 0 min 78 W/m 16,1 km/h (3 Bft) 100,00 %
02.12.2021 11:18 3,5 C 3,3 C 2,2 C 92 % 1002,0 hPa 0,0 l/m 0 min 0 min 73 W/m 16,1 km/h (3 Bft) 97,87 %
02.12.2021 11:20 3,5 C 3,3 C 2,2 C 92 % 1002,1 hPa 0,0 l/m 0 min 0 min 90 W/m 16,1 km/h (3 Bft) 100,00 %
02.12.2021 11:22 3,5 C 3,3 C 2,2 C 92 % 1002,1 hPa 0,0 l/m 0 min 0 min 109 W/m 16,1 km/h (3 Bft) 100,00 %
02.12.2021 11:24 3,6 C 3,9 C 2,2 C 92 % 1002,1 hPa 0,0 l/m 0 min 0 min 125 W/m 12,9 km/h (3 Bft) 100,00 %
02.12.2021 11:26 3,6 C 3,9 C 2,2 C 91 % 1002,1 hPa 0,0 l/m 2 min 0 min 182 W/m 9,7 km/h (2 Bft) 97,87 %
02.12.2021 11:28 3,8 C 4,4 C 2,8 C 92 % 1002,1 hPa 0,0 l/m 2 min 0 min 169 W/m 12,9 km/h (3 Bft) 97,87 %
02.12.2021 11:30 3,9 C 4,4 C 2,8 C 92 % 1002,1 hPa 0,0 l/m 0 min 0 min 128 W/m 19,3 km/h (3 Bft) 100,00 %
02.12.2021 11:32 3,9 C 4,4 C 2,8 C 91 % 1002,2 hPa 0,0 l/m 2 min 0 min 154 W/m 16,1 km/h (3 Bft) 97,87 %
02.12.2021 11:34 3,9 C 3,9 C 2,8 C 91 % 1002,2 hPa 0,0 l/m 0 min 0 min 132 W/m 22,5 km/h (4 Bft) 100,00 %
02.12.2021 11:36 3,8 C 3,9 C 2,8 C 91 % 1002,1 hPa 0,0 l/m 2 min 0 min 173 W/m 22,5 km/h (4 Bft) 97,83 %
02.12.2021 11:38 3,8 C 3,9 C 2,8 C 91 % 1002,1 hPa 0,0 l/m 0 min 0 min 118 W/m 19,3 km/h (3 Bft) 100,00 %
02.12.2021 11:40 3,8 C 3,9 C 2,8 C 90 % 1002,1 hPa 0,0 l/m 0 min 0 min 102 W/m 16,1 km/h (3 Bft) 100,00 %
02.12.2021 11:42 3,8 C 3,9 C 2,8 C 90 % 1002,1 hPa 0,0 l/m 0 min 0 min 90 W/m 16,1 km/h (3 Bft) 97,87 %
02.12.2021 11:44 3,8 C 3,9 C 2,8 C 90 % 1002,1 hPa 0,0 l/m 0 min 0 min 149 W/m 16,1 km/h (3 Bft) 100,00 %
02.12.2021 11:46 3,8 C 3,9 C 2,8 C 90 % 1002,1 hPa 0,0 l/m 2 min 0 min 158 W/m 19,3 km/h (3 Bft) 97,87 %
02.12.2021 11:48 3,9 C 4,4 C 2,8 C 90 % 1002,1 hPa 0,0 l/m 0 min 0 min 133 W/m 16,1 km/h (3 Bft) 100,00 %
02.12.2021 11:50 3,9 C 4,4 C 2,8 C 91 % 1002,2 hPa 0,0 l/m 0 min 0 min 145 W/m 12,9 km/h (3 Bft) 100,00 %
02.12.2021 11:52 3,9 C 3,9 C 2,8 C 90 % 1002,2 hPa 0,0 l/m 0 min 0 min 113 W/m 22,5 km/h (4 Bft) 100,00 %
02.12.2021 11:54 3,9 C 3,9 C 2,8 C 90 % 1002,1 hPa 0,0 l/m 0 min 0 min 68 W/m 19,3 km/h (3 Bft) 100,00 %
02.12.2021 11:56 3,9 C 3,9 C 2,2 C 90 % 1002,2 hPa 0,0 l/m 0 min 0 min 60 W/m 16,1 km/h (3 Bft) 97,87 %
02.12.2021 11:58 3,8 C 3,9 C 2,2 C 90 % 1002,2 hPa 0,0 l/m 0 min 0 min 68 W/m 12,9 km/h (3 Bft) 100,00 %
02.12.2021 12:00 3,8 C 3,9 C 2,2 C 90 % 1002,2 hPa 0,0 l/m 0 min 0 min 79 W/m 12,9 km/h (3 Bft) 100,00 %
02.12.2021 12:02 3,8 C 3,9 C 2,2 C 90 % 1002,2 hPa 0,0 l/m 0 min 0 min 95 W/m 9,7 km/h (2 Bft) 95,74 %
02.12.2021 12:04 3,7 C 3,9 C 2,2 C 90 % 1002,2 hPa 0,0 l/m 0 min 0 min 96 W/m 12,9 km/h (3 Bft) 97,87 %
02.12.2021 12:08 3,7 C 4,4 C 2,2 C 90 % 1002,1 hPa 0,0 l/m 0 min 0 min 132 W/m 16,1 km/h (3 Bft) 96,81 %
02.12.2021 12:10 3,8 C 5,0 C 2,2 C 90 % 1002,1 hPa 0,0 l/m 0 min 0 min 138 W/m 12,9 km/h (3 Bft) 93,62 %
02.12.2021 12:12 3,9 C 5,6 C 2,8 C 90 % 1002,2 hPa 0,0 l/m 0 min 0 min 142 W/m 12,9 km/h (3 Bft) 95,65 %
02.12.2021 12:14 4,0 C 5,6 C 2,8 C 90 % 1002,2 hPa 0,0 l/m 0 min 0 min 152 W/m 16,1 km/h (3 Bft) 97,87 %
02.12.2021 12:16 4,1 C 5,6 C 2,8 C 90 % 1002,2 hPa 0,0 l/m 0 min 0 min 161 W/m 25,7 km/h (4 Bft) 97,87 %
02.12.2021 12:18 4,1 C 5,0 C 2,8 C 90 % 1002,2 hPa 0,0 l/m 0 min 0 min 126 W/m 12,9 km/h (3 Bft) 97,87 %
02.12.2021 12:20 4,1 C 5,6 C 2,8 C 89 % 1002,2 hPa 0,0 l/m 2 min 0 min 163 W/m 12,9 km/h (3 Bft) 97,87 %
02.12.2021 12:22 4,2 C 5,6 C 2,8 C 89 % 1002,2 hPa 0,0 l/m 2 min 0 min 200 W/m 16,1 km/h (3 Bft) 97,87 %
02.12.2021 12:24 4,3 C 6,1 C 2,8 C 89 % 1002,2 hPa 0,0 l/m 2 min 0 min 211 W/m 12,9 km/h (3 Bft) 93,48 %
02.12.2021 12:26 4,3 C 6,7 C 2,8 C 90 % 1002,2 hPa 0,0 l/m 2 min 0 min 244 W/m 12,9 km/h (3 Bft) 97,87 %
02.12.2021 12:28 4,4 C 6,1 C 2,8 C 89 % 1002,2 hPa 0,0 l/m 2 min 0 min 217 W/m 22,5 km/h (4 Bft) 97,87 %
02.12.2021 12:30 4,3 C 5,6 C 2,8 C 89 % 1002,2 hPa 0,0 l/m 0 min 0 min 102 W/m 19,3 km/h (3 Bft) 97,87 %
02.12.2021 12:32 4,3 C 5,0 C 2,2 C 89 % 1002,3 hPa 0,0 l/m 0 min 0 min 85 W/m 16,1 km/h (3 Bft) 91,49 %
02.12.2021 12:34 4,1 C 4,4 C 2,2 C 89 % 1002,3 hPa 0,0 l/m 0 min 0 min 72 W/m 19,3 km/h (3 Bft) 97,87 %
02.12.2021 12:36 4,0 C 3,9 C 2,2 C 89 % 1002,3 hPa 0,0 l/m 0 min 0 min 100 W/m 16,1 km/h (3 Bft) 95,65 %
02.12.2021 12:38 4,0 C 3,9 C 2,2 C 88 % 1002,4 hPa 0,0 l/m 0 min 0 min 109 W/m 19,3 km/h (3 Bft) 95,74 %
02.12.2021 12:40 3,9 C 3,9 C 2,2 C 89 % 1002,4 hPa 0,0 l/m 0 min 0 min 85 W/m 16,1 km/h (3 Bft) 95,74 %
02.12.2021 12:42 3,9 C 3,9 C 2,2 C 89 % 1002,4 hPa 0,0 l/m 0 min 0 min 95 W/m 12,9 km/h (3 Bft) 95,74 %
02.12.2021 12:44 3,9 C 3,9 C 2,2 C 89 % 1002,4 hPa 0,0 l/m 0 min 0 min 90 W/m 12,9 km/h (3 Bft) 95,74 %
02.12.2021 12:46 3,9 C 3,9 C 2,2 C 89 % 1002,5 hPa 0,0 l/m 0 min 0 min 95 W/m 16,1 km/h (3 Bft) 97,87 %
02.12.2021 12:48 3,9 C 3,9 C 2,2 C 89 % 1002,5 hPa 0,0 l/m 0 min 0 min 95 W/m 12,9 km/h (3 Bft) 93,48 %
02.12.2021 12:50 3,9 C 3,9 C 2,2 C 89 % 1002,5 hPa 0,0 l/m 0 min 0 min 112 W/m 16,1 km/h (3 Bft) 95,74 %
02.12.2021 12:52 3,9 C 3,9 C 2,2 C 89 % 1002,5 hPa 0,0 l/m 0 min 0 min 117 W/m 9,7 km/h (2 Bft) 93,62 %
02.12.2021 12:54 3,9 C 3,9 C 2,2 C 89 % 1002,4 hPa 0,0 l/m 0 min 0 min 110 W/m 19,3 km/h (3 Bft) 97,87 %
02.12.2021 12:56 3,8 C 3,9 C 2,2 C 89 % 1002,4 hPa 0,0 l/m 0 min 0 min 112 W/m 12,9 km/h (3 Bft) 95,74 %
02.12.2021 12:58 3,8 C 3,9 C 2,2 C 89 % 1002,5 hPa 0,0 l/m 0 min 0 min 117 W/m 12,9 km/h (3 Bft) 95,74 %
02.12.2021 13:00 3,8 C 4,4 C 2,2 C 89 % 1002,5 hPa 0,0 l/m 0 min 0 min 112 W/m 12,9 km/h (3 Bft) 95,65 %
02.12.2021 13:02 3,8 C 4,4 C 2,2 C 89 % 1002,5 hPa 0,0 l/m 0 min 0 min 108 W/m 12,9 km/h (3 Bft) 95,74 %
02.12.2021 13:04 3,8 C 3,9 C 2,2 C 89 % 1002,5 hPa 0,0 l/m 0 min 0 min 44 W/m 9,7 km/h (2 Bft) 95,74 %
02.12.2021 13:06 3,8 C 3,9 C 2,2 C 89 % 1002,6 hPa 0,0 l/m 0 min 0 min 38 W/m 12,9 km/h (3 Bft) 95,74 %
02.12.2021 13:08 3,8 C 3,9 C 2,2 C 88 % 1002,6 hPa 0,0 l/m 0 min 0 min 52 W/m 12,9 km/h (3 Bft) 95,74 %
02.12.2021 13:10 3,8 C 3,3 C 2,2 C 88 % 1002,6 hPa 0,0 l/m 0 min 0 min 51 W/m 16,1 km/h (3 Bft) 95,74 %
02.12.2021 13:12 3,7 C 3,3 C 2,2 C 88 % 1002,6 hPa 0,0 l/m 0 min 0 min 46 W/m 16,1 km/h (3 Bft) 95,65 %
02.12.2021 13:14 3,8 C 3,3 C 2,2 C 88 % 1002,7 hPa 0,0 l/m 0 min 0 min 49 W/m 9,7 km/h (2 Bft) 97,87 %
02.12.2021 13:16 3,7 C 3,3 C 1,7 C 88 % 1002,7 hPa 0,0 l/m 0 min 0 min 61 W/m 16,1 km/h (3 Bft) 97,87 %
02.12.2021 13:18 3,7 C 3,3 C 1,7 C 88 % 1002,7 hPa 0,0 l/m 0 min 0 min 78 W/m 12,9 km/h (3 Bft) 97,87 %
02.12.2021 13:20 3,7 C 3,3 C 2,2 C 88 % 1002,7 hPa 0,0 l/m 0 min 0 min 82 W/m 12,9 km/h (3 Bft) 97,87 %
02.12.2021 13:22 3,7 C 3,3 C 2,2 C 88 % 1002,8 hPa 0,0 l/m 0 min 0 min 53 W/m 9,7 km/h (2 Bft) 95,65 %
02.12.2021 13:24 3,7 C 3,3 C 1,7 C 88 % 1002,8 hPa 0,0 l/m 0 min 0 min 49 W/m 9,7 km/h (2 Bft) 95,74 %
02.12.2021 13:26 3,7 C 3,3 C 1,7 C 88 % 1002,8 hPa 0,0 l/m 0 min 0 min 54 W/m 12,9 km/h (3 Bft) 97,87 %
02.12.2021 13:28 3,7 C 3,3 C 1,7 C 88 % 1002,8 hPa 0,0 l/m 0 min 0 min 67 W/m 12,9 km/h (3 Bft) 97,87 %
02.12.2021 13:30 3,7 C 3,3 C 1,7 C 88 % 1002,9 hPa 0,0 l/m 0 min 0 min 61 W/m 12,9 km/h (3 Bft) 97,87 %
02.12.2021 13:32 3,7 C 3,3 C 1,7 C 88 % 1002,9 hPa 0,0 l/m 0 min 0 min 43 W/m 16,1 km/h (3 Bft) 97,87 %
02.12.2021 13:34 3,7 C 3,3 C 1,7 C 88 % 1002,9 hPa 0,0 l/m 0 min 0 min 34 W/m 19,3 km/h (3 Bft) 97,83 %
02.12.2021 13:36 3,7 C 3,3 C 1,7 C 88 % 1002,9 hPa 0,0 l/m 0 min 0 min 42 W/m 16,1 km/h (3 Bft) 97,87 %
02.12.2021 13:38 3,7 C 3,3 C 1,7 C 88 % 1002,9 hPa 0,0 l/m 0 min 0 min 51 W/m 16,1 km/h (3 Bft) 97,87 %
02.12.2021 13:40 3,7 C 3,3 C 1,7 C 88 % 1003,0 hPa 0,0 l/m 0 min 0 min 45 W/m 19,3 km/h (3 Bft) 95,74 %
02.12.2021 13:42 3,7 C 3,3 C 1,7 C 88 % 1002,9 hPa 0,0 l/m 0 min 0 min 48 W/m 16,1 km/h (3 Bft) 97,87 %
02.12.2021 13:44 3,7 C 3,3 C 1,7 C 88 % 1003,0 hPa 0,0 l/m 0 min 0 min 48 W/m 9,7 km/h (2 Bft) 97,87 %
02.12.2021 13:46 3,7 C 3,3 C 1,7 C 88 % 1003,0 hPa 0,0 l/m 0 min 0 min 54 W/m 16,1 km/h (3 Bft) 100,00 %
02.12.2021 13:48 3,8 C 3,3 C 1,7 C 88 % 1003,0 hPa 0,0 l/m 0 min 0 min 49 W/m 12,9 km/h (3 Bft) 100,00 %
02.12.2021 13:50 3,8 C 3,3 C 1,7 C 88 % 1003,0 hPa 0,0 l/m 0 min 0 min 37 W/m 12,9 km/h (3 Bft) 97,87 %
02.12.2021 13:52 3,8 C 3,3 C 1,7 C 88 % 1003,0 hPa 0,0 l/m 0 min 0 min 35 W/m 12,9 km/h (3 Bft) 100,00 %
02.12.2021 13:54 3,8 C 3,3 C 1,7 C 89 % 1003,0 hPa 0,0 l/m 0 min 0 min 49 W/m 12,9 km/h (3 Bft) 100,00 %
02.12.2021 13:56 3,8 C 3,3 C 1,7 C 89 % 1002,9 hPa 0,0 l/m 0 min 0 min 59 W/m 12,9 km/h (3 Bft) 100,00 %
02.12.2021 13:58 3,8 C 3,3 C 1,7 C 89 % 1003,0 hPa 0,0 l/m 0 min 0 min 59 W/m 9,7 km/h (2 Bft) 97,83 %
02.12.2021 14:00 3,8 C 3,3 C 1,7 C 89 % 1003,0 hPa 0,0 l/m 0 min 0 min 67 W/m 12,9 km/h (3 Bft) 100,00 %
02.12.2021 14:02 3,8 C 3,9 C 1,7 C 89 % 1003,1 hPa 0,0 l/m 0 min 0 min 70 W/m 16,1 km/h (3 Bft) 100,00 %
02.12.2021 14:04 3,8 C 3,9 C 1,7 C 89 % 1003,1 hPa 0,0 l/m 0 min 0 min 60 W/m 12,9 km/h (3 Bft) 97,87 %
02.12.2021 14:06 3,8 C 3,9 C 1,7 C 88 % 1003,1 hPa 0,0 l/m 0 min 0 min 64 W/m 9,7 km/h (2 Bft) 97,87 %
02.12.2021 14:08 3,8 C 3,9 C 2,2 C 88 % 1003,1 hPa 0,0 l/m 0 min 0 min 71 W/m 12,9 km/h (3 Bft) 97,87 %
02.12.2021 14:10 3,9 C 3,9 C 2,2 C 88 % 1003,1 hPa 0,0 l/m 0 min 0 min 60 W/m 12,9 km/h (3 Bft) 100,00 %
02.12.2021 14:12 3,9 C 3,9 C 1,7 C 88 % 1003,1 hPa 0,0 l/m 0 min 0 min 49 W/m 9,7 km/h (2 Bft) 97,87 %
02.12.2021 14:14 3,9 C 3,3 C 1,7 C 88 % 1003,1 hPa 0,0 l/m 0 min 0 min 43 W/m 25,7 km/h (4 Bft) 100,00 %
02.12.2021 14:16 3,8 C 3,3 C 1,7 C 88 % 1003,1 hPa 0,0 l/m 0 min 0 min 39 W/m 12,9 km/h (3 Bft) 97,87 %
02.12.2021 14:18 3,9 C 3,3 C 1,7 C 88 % 1003,1 hPa 0,0 l/m 0 min 0 min 38 W/m 12,9 km/h (3 Bft) 100,00 %
02.12.2021 14:20 3,9 C 3,3 C 1,7 C 88 % 1003,1 hPa 0,0 l/m 0 min 0 min 45 W/m 12,9 km/h (3 Bft) 100,00 %
02.12.2021 14:22 3,9 C 3,3 C 1,7 C 88 % 1003,1 hPa 0,0 l/m 0 min 0 min 40 W/m 16,1 km/h (3 Bft) 100,00 %
02.12.2021 14:24 3,9 C 3,3 C 1,7 C 88 % 1003,2 hPa 0,0 l/m 0 min 0 min 42 W/m 9,7 km/h (2 Bft) 100,00 %
02.12.2021 14:26 3,9 C 3,3 C 1,7 C 88 % 1003,3 hPa 0,0 l/m 0 min 0 min 53 W/m 12,9 km/h (3 Bft) 97,87 %
02.12.2021 14:28 3,9 C 3,3 C 1,7 C 88 % 1003,3 hPa 0,0 l/m 0 min 0 min 54 W/m 9,7 km/h (2 Bft) 100,00 %
02.12.2021 14:30 3,9 C 3,9 C 1,7 C 88 % 1003,3 hPa 0,0 l/m 0 min 0 min 52 W/m 9,7 km/h (2 Bft) 97,87 %
02.12.2021 14:32 3,9 C 3,9 C 1,7 C 89 % 1003,3 hPa 0,0 l/m 0 min 0 min 44 W/m 19,3 km/h (3 Bft) 100,00 %
02.12.2021 14:34 3,9 C 3,3 C 1,7 C 89 % 1003,3 hPa 0,0 l/m 0 min 0 min 33 W/m 9,7 km/h (2 Bft) 100,00 %
02.12.2021 14:36 3,9 C 3,3 C 1,7 C 88 % 1003,3 hPa 0,0 l/m 0 min 0 min 24 W/m 16,1 km/h (3 Bft) 97,87 %
02.12.2021 14:38 3,9 C 3,3 C 1,7 C 88 % 1003,4 hPa 0,0 l/m 0 min 0 min 24 W/m 12,9 km/h (3 Bft) 100,00 %
02.12.2021 14:40 3,9 C 3,3 C 1,7 C 88 % 1003,4 hPa 0,0 l/m 0 min 0 min 24 W/m 25,7 km/h (4 Bft) 95,74 %
02.12.2021 14:42 3,9 C 3,3 C 1,7 C 89 % 1003,4 hPa 0,0 l/m 0 min 0 min 27 W/m 12,9 km/h (3 Bft) 95,74 %
02.12.2021 14:44 3,9 C 3,9 C 1,7 C 89 % 1003,5 hPa 0,0 l/m 0 min 0 min 23 W/m 16,1 km/h (3 Bft) 97,87 %
02.12.2021 14:46 4,0 C 3,9 C 2,2 C 89 % 1003,5 hPa 0,0 l/m 0 min 0 min 18 W/m 6,4 km/h (2 Bft) 97,83 %
02.12.2021 14:48 4,0 C 3,9 C 2,2 C 89 % 1003,5 hPa 0,0 l/m 0 min 0 min 16 W/m 9,7 km/h (2 Bft) 97,87 %
02.12.2021 14:50 4,1 C 3,9 C 2,2 C 89 % 1003,6 hPa 0,0 l/m 0 min 0 min 20 W/m 12,9 km/h (3 Bft) 93,62 %
02.12.2021 14:52 4,1 C 3,9 C 2,2 C 89 % 1003,7 hPa 0,0 l/m 0 min 0 min 26 W/m 9,7 km/h (2 Bft) 97,87 %
02.12.2021 14:54 4,2 C 3,9 C 2,2 C 89 % 1003,6 hPa 0,0 l/m 0 min 0 min 26 W/m 9,7 km/h (2 Bft) 97,87 %
02.12.2021 14:56 4,2 C 3,9 C 2,2 C 89 % 1003,6 hPa 0,0 l/m 0 min 0 min 32 W/m 12,9 km/h (3 Bft) 95,65 %
02.12.2021 14:58 4,3 C 3,9 C 2,2 C 89 % 1003,6 hPa 0,0 l/m 0 min 0 min 41 W/m 12,9 km/h (3 Bft) 95,74 %
02.12.2021 15:00 4,3 C 4,4 C 2,2 C 88 % 1003,7 hPa 0,0 l/m 0 min 0 min 72 W/m 12,9 km/h (3 Bft) 97,87 %
02.12.2021 15:02 4,3 C 4,4 C 2,2 C 88 % 1003,7 hPa 0,0 l/m 2 min 0 min 96 W/m 16,1 km/h (3 Bft) 95,83 %
02.12.2021 15:04 4,3 C 4,4 C 2,2 C 88 % 1003,7 hPa 0,0 l/m 0 min 0 min 77 W/m 12,9 km/h (3 Bft) 93,62 %
02.12.2021 15:06 4,3 C 4,4 C 2,2 C 89 % 1003,8 hPa 0,0 l/m 0 min 0 min 56 W/m 16,1 km/h (3 Bft) 95,74 %
02.12.2021 15:08 4,3 C 4,4 C 2,2 C 88 % 1003,7 hPa 0,0 l/m 0 min 0 min 38 W/m 12,9 km/h (3 Bft) 95,65 %
02.12.2021 15:10 4,3 C 4,4 C 2,2 C 88 % 1003,7 hPa 0,0 l/m 0 min 0 min 29 W/m 9,7 km/h (2 Bft) 95,74 %
02.12.2021 15:12 4,3 C 3,9 C 2,2 C 88 % 1003,7 hPa 0,0 l/m 0 min 0 min 24 W/m 16,1 km/h (3 Bft) 95,74 %
02.12.2021 15:14 4,3 C 3,9 C 2,2 C 88 % 1003,8 hPa 0,0 l/m 0 min 0 min 19 W/m 12,9 km/h (3 Bft) 93,62 %
02.12.2021 15:16 4,3 C 3,9 C 2,2 C 88 % 1003,8 hPa 0,0 l/m 0 min 0 min 21 W/m 19,3 km/h (3 Bft) 95,74 %
02.12.2021 15:18 4,3 C 3,9 C 1,7 C 88 % 1003,8 hPa 0,0 l/m 0 min 0 min 22 W/m 12,9 km/h (3 Bft) 93,62 %
02.12.2021 15:20 4,1 C 3,9 C 1,7 C 88 % 1003,9 hPa 0,0 l/m 0 min 0 min 25 W/m 12,9 km/h (3 Bft) 97,83 %
02.12.2021 15:22 4,1 C 3,9 C 1,7 C 88 % 1003,9 hPa 0,0 l/m 0 min 0 min 25 W/m 9,7 km/h (2 Bft) 97,87 %
02.12.2021 15:24 4,1 C 3,9 C 1,7 C 88 % 1004,0 hPa 0,0 l/m 0 min 0 min 25 W/m 9,7 km/h (2 Bft) 97,87 %
02.12.2021 15:26 4,1 C 3,9 C 1,7 C 88 % 1004,0 hPa 0,0 l/m 0 min 0 min 30 W/m 12,9 km/h (3 Bft) 97,87 %
02.12.2021 15:28 4,0 C 3,9 C 1,7 C 88 % 1004,1 hPa 0,0 l/m 0 min 0 min 43 W/m 6,4 km/h (2 Bft) 95,74 %
02.12.2021 15:30 4,0 C 3,9 C 1,7 C 89 % 1004,1 hPa 0,0 l/m 2 min 0 min 71 W/m 16,1 km/h (3 Bft) 100,00 %
02.12.2021 15:32 4,0 C 3,9 C 1,7 C 89 % 1004,1 hPa 0,0 l/m 2 min 0 min 64 W/m 12,9 km/h (3 Bft) 97,83 %
02.12.2021 15:34 4,0 C 3,9 C 1,7 C 89 % 1004,1 hPa 0,0 l/m 2 min 0 min 67 W/m 19,3 km/h (3 Bft) 97,87 %
02.12.2021 15:36 4,1 C 3,9 C 1,7 C 89 % 1004,2 hPa 0,0 l/m 0 min 0 min 49 W/m 16,1 km/h (3 Bft) 95,74 %
02.12.2021 15:38 4,1 C 3,9 C 2,2 C 89 % 1004,2 hPa 0,0 l/m 0 min 0 min 39 W/m 9,7 km/h (2 Bft) 97,87 %
02.12.2021 15:40 4,1 C 3,9 C 2,2 C 89 % 1004,2 hPa 0,0 l/m 0 min 0 min 37 W/m 22,5 km/h (4 Bft) 97,87 %
02.12.2021 15:42 4,1 C 3,9 C 2,2 C 89 % 1004,2 hPa 0,0 l/m 0 min 0 min 25 W/m 25,7 km/h (4 Bft) 97,87 %
02.12.2021 15:44 4,1 C 3,9 C 1,7 C 88 % 1004,3 hPa 0,0 l/m 0 min 0 min 21 W/m 25,7 km/h (4 Bft) 100,00 %
02.12.2021 15:46 4,1 C 3,9 C 1,7 C 88 % 1004,3 hPa 0,0 l/m 0 min 0 min 19 W/m 19,3 km/h (3 Bft) 100,00 %
02.12.2021 15:48 4,1 C 3,9 C 1,7 C 88 % 1004,2 hPa 0,0 l/m 0 min 0 min 20 W/m 16,1 km/h (3 Bft) 100,00 %
02.12.2021 15:50 4,0 C 3,3 C 1,7 C 88 % 1004,3 hPa 0,0 l/m 0 min 0 min 22 W/m 22,5 km/h (4 Bft) 97,87 %
02.12.2021 15:52 4,0 C 3,3 C 1,7 C 88 % 1004,3 hPa 0,0 l/m 0 min 0 min 24 W/m 16,1 km/h (3 Bft) 97,87 %
02.12.2021 15:54 4,0 C 3,3 C 1,7 C 88 % 1004,4 hPa 0,0 l/m 0 min 0 min 31 W/m 19,3 km/h (3 Bft) 97,87 %
02.12.2021 15:56 4,0 C 3,3 C 1,7 C 88 % 1004,5 hPa 0,0 l/m 2 min 0 min 39 W/m 12,9 km/h (3 Bft) 97,83 %
02.12.2021 15:58 4,0 C 3,3 C 1,7 C 88 % 1004,4 hPa 0,0 l/m 2 min 0 min 35 W/m 16,1 km/h (3 Bft) 95,74 %
02.12.2021 16:00 3,9 C 3,3 C 1,7 C 88 % 1004,5 hPa 0,0 l/m 2 min 0 min 31 W/m 19,3 km/h (3 Bft) 95,74 %
02.12.2021 16:02 3,9 C 3,3 C 1,7 C 88 % 1004,5 hPa 0,0 l/m 2 min 0 min 28 W/m 19,3 km/h (3 Bft) 94,44 %
02.12.2021 16:04 3,9 C 3,3 C 1,7 C 88 % 1004,6 hPa 0,0 l/m 2 min 0 min 24 W/m 29,0 km/h (5 Bft) 95,74 %
02.12.2021 16:06 3,8 C 3,3 C 1,1 C 88 % 1004,7 hPa 0,0 l/m 0 min 0 min 19 W/m 19,3 km/h (3 Bft) 98,31 %
02.12.2021 16:08 3,8 C 3,3 C 1,1 C 88 % 1004,7 hPa 0,0 l/m 0 min 0 min 16 W/m 12,9 km/h (3 Bft) 97,83 %
02.12.2021 16:10 3,8 C 3,3 C 1,1 C 88 % 1004,8 hPa 0,0 l/m 0 min 0 min 16 W/m 16,1 km/h (3 Bft) 97,22 %
02.12.2021 16:12 3,8 C 3,3 C 1,1 C 88 % 1004,9 hPa 0,0 l/m 0 min 0 min 16 W/m 32,2 km/h (5 Bft) 97,83 %
02.12.2021 16:14 3,7 C 3,3 C 1,1 C 88 % 1004,9 hPa 0,0 l/m 2 min 0 min 21 W/m 19,3 km/h (3 Bft) 97,87 %
02.12.2021 16:16 3,6 C 3,3 C 1,1 C 88 % 1004,9 hPa 0,0 l/m 0 min 0 min 15 W/m 22,5 km/h (4 Bft) 97,87 %
02.12.2021 16:18 3,6 C 3,3 C 1,1 C 88 % 1004,9 hPa 0,0 l/m 0 min 0 min 10 W/m 6,4 km/h (2 Bft) 97,87 %
02.12.2021 16:20 3,6 C 3,3 C 1,1 C 88 % 1005,0 hPa 0,0 l/m 0 min 0 min 6 W/m 12,9 km/h (3 Bft) 95,74 %
02.12.2021 16:22 3,6 C 3,3 C 1,1 C 88 % 1005,1 hPa 0,0 l/m 0 min 0 min 13 W/m 19,3 km/h (3 Bft) 97,83 %
02.12.2021 16:24 3,6 C 3,3 C 1,1 C 88 % 1005,1 hPa 0,0 l/m 0 min 0 min 9 W/m 6,4 km/h (2 Bft) 97,87 %
02.12.2021 16:26 3,6 C 2,8 C 1,1 C 89 % 1005,1 hPa 0,0 l/m 0 min 0 min 7 W/m 16,1 km/h (3 Bft) 97,87 %
02.12.2021 16:28 3,6 C 2,8 C 1,1 C 88 % 1005,1 hPa 0,0 l/m 0 min 0 min 5 W/m 16,1 km/h (3 Bft) 97,87 %
02.12.2021 16:30 3,5 C 2,8 C 1,1 C 88 % 1005,2 hPa 0,0 l/m 0 min 0 min 5 W/m 12,9 km/h (3 Bft) 97,87 %
02.12.2021 16:32 3,5 C 2,8 C 1,1 C 89 % 1005,2 hPa 0,0 l/m 0 min 0 min 4 W/m 22,5 km/h (4 Bft) 93,62 %
02.12.2021 16:34 3,5 C 2,8 C 0,6 C 89 % 1005,2 hPa 0,0 l/m 0 min 0 min 0 W/m 12,9 km/h (3 Bft) 95,65 %
02.12.2021 16:36 3,4 C 2,8 C 0,6 C 89 % 1005,3 hPa 0,0 l/m 0 min 0 min 0 W/m 12,9 km/h (3 Bft) 93,22 %
02.12.2021 16:38 3,4 C 2,8 C 0,6 C 89 % 1005,3 hPa 0,0 l/m 0 min 0 min 0 W/m 16,1 km/h (3 Bft) 94,29 %
02.12.2021 16:40 3,4 C 2,8 C 0,6 C 89 % 1005,4 hPa 0,0 l/m 0 min 0 min 0 W/m 16,1 km/h (3 Bft) 95,74 %
02.12.2021 16:42 3,3 C 2,8 C 0,6 C 89 % 1005,4 hPa 0,0 l/m 0 min 0 min 0 W/m 9,7 km/h (2 Bft) 95,74 %
02.12.2021 16:44 3,3 C 2,8 C 0,6 C 89 % 1005,4 hPa 0,0 l/m 0 min 0 min 0 W/m 9,7 km/h (2 Bft) 97,87 %
02.12.2021 16:46 3,2 C 2,2 C 0,6 C 89 % 1005,5 hPa 0,0 l/m 0 min 0 min 0 W/m 12,9 km/h (3 Bft) 97,83 %
02.12.2021 16:48 3,2 C 2,2 C 0,6 C 89 % 1005,6 hPa 0,0 l/m 0 min 0 min 0 W/m 9,7 km/h (2 Bft) 95,74 %
02.12.2021 16:50 3,1 C 2,2 C 0,6 C 89 % 1005,7 hPa 0,0 l/m 0 min 0 min 0 W/m 9,7 km/h (2 Bft) 93,62 %
02.12.2021 16:52 3,1 C 2,2 C 0,6 C 89 % 1005,7 hPa 0,0 l/m 0 min 0 min 0 W/m 9,7 km/h (2 Bft) 95,74 %
02.12.2021 16:54 3,0 C 2,2 C 0,6 C 89 % 1005,7 hPa 0,0 l/m 0 min 0 min 0 W/m 12,9 km/h (3 Bft) 95,74 %
02.12.2021 16:56 3,0 C 2,2 C 0,6 C 89 % 1005,7 hPa 0,0 l/m 0 min 0 min 0 W/m 12,9 km/h (3 Bft) 97,87 %
02.12.2021 16:58 3,0 C 2,2 C 0,6 C 89 % 1005,7 hPa 0,0 l/m 0 min 0 min 0 W/m 12,9 km/h (3 Bft) 93,48 %
02.12.2021 17:00 2,9 C 2,2 C 0,6 C 90 % 1005,8 hPa 0,0 l/m 0 min 0 min 0 W/m 16,1 km/h (3 Bft) 97,87 %
02.12.2021 17:02 2,9 C 2,2 C 0,6 C 90 % 1005,9 hPa 0,0 l/m 0 min 0 min 0 W/m 6,4 km/h (2 Bft) 97,87 %
02.12.2021 17:04 2,9 C 2,2 C 0,0 C 90 % 1006,0 hPa 0,0 l/m 0 min 0 min 0 W/m 9,7 km/h (2 Bft) 97,87 %
02.12.2021 17:06 2,8 C 2,2 C 0,0 C 90 % 1006,1 hPa 0,0 l/m 0 min 0 min 0 W/m 9,7 km/h (2 Bft) 100,00 %
02.12.2021 17:08 2,8 C 2,2 C 0,0 C 90 % 1006,0 hPa 0,0 l/m 0 min 0 min 0 W/m 6,4 km/h (2 Bft) 100,00 %
02.12.2021 17:10 2,8 C 1,7 C 0,0 C 90 % 1006,0 hPa 0,0 l/m 0 min 0 min 0 W/m 6,4 km/h (2 Bft) 100,00 %
02.12.2021 17:12 2,7 C 1,7 C 0,0 C 90 % 1006,1 hPa 0,0 l/m 0 min 0 min 0 W/m 9,7 km/h (2 Bft) 100,00 %
02.12.2021 17:14 2,7 C 1,7 C 0,0 C 90 % 1006,1 hPa 0,0 l/m 0 min 0 min 0 W/m 6,4 km/h (2 Bft) 100,00 %
02.12.2021 17:16 2,6 C 1,7 C 0,0 C 90 % 1006,2 hPa 0,0 l/m 0 min 0 min 0 W/m 6,4 km/h (2 Bft) 100,00 %
02.12.2021 17:18 2,6 C 1,7 C 0,0 C 90 % 1006,2 hPa 0,0 l/m 0 min 0 min 0 W/m 9,7 km/h (2 Bft) 97,83 %
02.12.2021 17:20 2,6 C 1,7 C 0,0 C 90 % 1006,2 hPa 0,0 l/m 0 min 0 min 0 W/m 9,7 km/h (2 Bft) 100,00 %
02.12.2021 17:22 2,6 C 1,7 C 0,0 C 90 % 1006,2 hPa 0,0 l/m 0 min 0 min 0 W/m 6,4 km/h (2 Bft) 100,00 %
02.12.2021 17:24 2,5 C 1,7 C 0,0 C 90 % 1006,3 hPa 0,0 l/m 0 min 0 min 0 W/m 3,2 km/h (1 Bft) 100,00 %
02.12.2021 17:26 2,5 C 1,7 C 0,0 C 90 % 1006,3 hPa 0,0 l/m 0 min 0 min 0 W/m 9,7 km/h (2 Bft) 100,00 %
02.12.2021 17:28 2,5 C 1,7 C 0,0 C 91 % 1006,4 hPa 0,0 l/m 0 min 0 min 0 W/m 9,7 km/h (2 Bft) 97,87 %
02.12.2021 17:30 2,4 C 1,7 C 0,0 C 91 % 1006,5 hPa 0,0 l/m 0 min 0 min 0 W/m 6,4 km/h (2 Bft) 95,65 %
02.12.2021 17:32 2,4 C 1,7 C -0,6 C 91 % 1006,4 hPa 0,0 l/m 0 min 0 min 0 W/m 9,7 km/h (2 Bft) 95,74 %
02.12.2021 17:34 2,4 C 1,7 C -0,6 C 91 % 1006,5 hPa 0,0 l/m 0 min 0 min 0 W/m 9,7 km/h (2 Bft) 97,87 %
02.12.2021 17:36 2,4 C 1,7 C 0,0 C 91 % 1006,5 hPa 0,0 l/m 0 min 0 min 0 W/m 6,4 km/h (2 Bft) 93,62 %
02.12.2021 17:38 2,3 C 1,7 C -0,6 C 91 % 1006,5 hPa 0,0 l/m 0 min 0 min 0 W/m 9,7 km/h (2 Bft) 97,87 %
02.12.2021 17:40 2,3 C 1,1 C -0,6 C 91 % 1006,5 hPa 0,0 l/m 0 min 0 min 0 W/m 6,4 km/h (2 Bft) 93,62 %
02.12.2021 17:42 2,3 C 1,1 C -0,6 C 91 % 1006,6 hPa 0,0 l/m 0 min 0 min 0 W/m 9,7 km/h (2 Bft) 97,83 %
02.12.2021 17:44 2,2 C 1,1 C -0,6 C 91 % 1006,6 hPa 0,0 l/m 0 min 0 min 0 W/m 6,4 km/h (2 Bft) 97,87 %
02.12.2021 17:46 2,2 C 1,1 C -0,6 C 91 % 1006,7 hPa 0,0 l/m 0 min 0 min 0 W/m 16,1 km/h (3 Bft) 97,87 %
02.12.2021 17:48 2,1 C 1,1 C -0,6 C 91 % 1006,7 hPa 0,0 l/m 0 min 0 min 0 W/m 9,7 km/h (2 Bft) 97,87 %
02.12.2021 17:50 2,1 C 1,1 C -0,6 C 91 % 1006,7 hPa 0,0 l/m 0 min 0 min 0 W/m 6,4 km/h (2 Bft) 97,87 %
02.12.2021 17:52 2,1 C 1,1 C -0,6 C 91 % 1006,8 hPa 0,0 l/m 0 min 0 min 0 W/m 6,4 km/h (2 Bft) 95,74 %
02.12.2021 17:54 2,1 C 1,1 C -0,6 C 91 % 1006,9 hPa 0,0 l/m 0 min 0 min 0 W/m 3,2 km/h (1 Bft) 97,83 %
02.12.2021 17:56 2,1 C 1,1 C -0,6 C 91 % 1006,9 hPa 0,0 l/m 0 min 0 min 0 W/m 6,4 km/h (2 Bft) 97,87 %
02.12.2021 17:58 2,1 C 1,1 C -0,6 C 91 % 1007,0 hPa 0,0 l/m 0 min 0 min 0 W/m 9,7 km/h (2 Bft) 97,87 %
02.12.2021 18:00 2,0 C 1,1 C -0,6 C 92 % 1007,1 hPa 0,0 l/m 0 min 0 min 0 W/m 6,4 km/h (2 Bft) 97,87 %
02.12.2021 18:02 2,0 C 1,1 C -0,6 C 92 % 1007,1 hPa 0,0 l/m 0 min 0 min 0 W/m 3,2 km/h (1 Bft) 95,74 %
02.12.2021 18:04 2,0 C 1,7 C -0,6 C 92 % 1007,1 hPa 0,0 l/m 0 min 0 min 0 W/m 3,2 km/h (1 Bft) 95,74 %
02.12.2021 18:08 2,0 C 1,1 C 0,0 C 92 % 1007,2 hPa 0,0 l/m 0 min 0 min 0 W/m 6,4 km/h (2 Bft) 98,92 %
02.12.2021 18:10 2,0 C 1,1 C -0,6 C 92 % 1007,2 hPa 0,0 l/m 0 min 0 min 0 W/m 9,7 km/h (2 Bft) 100,00 %
02.12.2021 18:12 2,0 C 1,1 C -0,6 C 92 % 1007,2 hPa 0,0 l/m 0 min 0 min 0 W/m 9,7 km/h (2 Bft) 95,74 %
02.12.2021 18:14 2,0 C 1,1 C -0,6 C 92 % 1007,3 hPa 0,0 l/m 0 min 0 min 0 W/m 6,4 km/h (2 Bft) 97,87 %
02.12.2021 18:16 2,0 C 1,1 C -0,6 C 92 % 1007,3 hPa 0,0 l/m 0 min 0 min 0 W/m 6,4 km/h (2 Bft) 97,87 %
02.12.2021 18:18 2,0 C 1,1 C -0,6 C 92 % 1007,3 hPa 0,0 l/m 0 min 0 min 0 W/m 6,4 km/h (2 Bft) 97,83 %
02.12.2021 18:20 2,0 C 1,1 C -0,6 C 92 % 1007,4 hPa 0,0 l/m 0 min 0 min 0 W/m 6,4 km/h (2 Bft) 95,74 %
02.12.2021 18:22 1,9 C 1,1 C -0,6 C 92 % 1007,5 hPa 0,0 l/m 0 min 0 min 0 W/m 12,9 km/h (3 Bft) 97,87 %
02.12.2021 18:24 1,9 C 1,1 C -0,6 C 92 % 1007,4 hPa 0,0 l/m 0 min 0 min 0 W/m 3,2 km/h (1 Bft) 97,87 %
02.12.2021 18:26 1,9 C 1,1 C -0,6 C 92 % 1007,5 hPa 0,0 l/m 0 min 0 min 0 W/m 6,4 km/h (2 Bft) 95,74 %
02.12.2021 18:28 1,9 C 1,1 C -0,6 C 92 % 1007,5 hPa 0,0 l/m 0 min 0 min 0 W/m 6,4 km/h (2 Bft) 97,87 %
02.12.2021 18:30 1,8 C 1,1 C -0,6 C 92 % 1007,5 hPa 0,0 l/m 0 min 0 min 0 W/m 3,2 km/h (1 Bft) 97,83 %
02.12.2021 18:32 1,8 C 1,1 C -0,6 C 92 % 1007,5 hPa 0,0 l/m 0 min 0 min 0 W/m 3,2 km/h (1 Bft) 97,87 %
02.12.2021 18:34 1,8 C 1,1 C -0,6 C 92 % 1007,6 hPa 0,0 l/m 0 min 0 min 0 W/m 3,2 km/h (1 Bft) 97,87 %
02.12.2021 18:36 1,8 C 0,6 C -1,1 C 92 % 1007,6 hPa 0,0 l/m 0 min 0 min 0 W/m 3,2 km/h (1 Bft) 97,87 %
02.12.2021 18:38 1,7 C 0,6 C -1,1 C 92 % 1007,6 hPa 0,0 l/m 0 min 0 min 0 W/m 6,4 km/h (2 Bft) 97,87 %
02.12.2021 18:40 1,7 C 0,6 C -1,1 C 92 % 1007,6 hPa 0,0 l/m 0 min 0 min 0 W/m 9,7 km/h (2 Bft) 97,87 %
02.12.2021 18:42 1,6 C 0,6 C -1,1 C 92 % 1007,7 hPa 0,0 l/m 0 min 0 min 0 W/m 6,4 km/h (2 Bft) 97,83 %
02.12.2021 18:44 1,6 C 0,6 C -1,1 C 92 % 1007,7 hPa 0,0 l/m 0 min 0 min 0 W/m 3,2 km/h (1 Bft) 97,87 %
02.12.2021 18:46 1,6 C 0,6 C -1,1 C 92 % 1007,8 hPa 0,0 l/m 0 min 0 min 0 W/m 9,7 km/h (2 Bft) 100,00 %
02.12.2021 18:48 1,6 C 0,6 C -1,1 C 92 % 1007,8 hPa 0,0 l/m 0 min 0 min 0 W/m 6,4 km/h (2 Bft) 100,00 %
02.12.2021 18:50 1,5 C 0,6 C -1,1 C 92 % 1007,8 hPa 0,0 l/m 0 min 0 min 0 W/m 3,2 km/h (1 Bft) 100,00 %
02.12.2021 18:52 1,5 C 0,6 C -1,1 C 92 % 1007,8 hPa 0,0 l/m 0 min 0 min 0 W/m 9,7 km/h (2 Bft) 100,00 %
02.12.2021 18:54 1,5 C 0,6 C -1,1 C 93 % 1007,9 hPa 0,0 l/m 0 min 0 min 0 W/m 6,4 km/h (2 Bft) 100,00 %
02.12.2021 18:56 1,5 C 0,6 C -1,1 C 93 % 1007,8 hPa 0,0 l/m 0 min 0 min 0 W/m 3,2 km/h (1 Bft) 100,00 %
02.12.2021 18:58 1,5 C 0,6 C -1,1 C 93 % 1008,0 hPa 0,0 l/m 0 min 0 min 0 W/m 3,2 km/h (1 Bft) 95,74 %
02.12.2021 19:00 1,4 C 0,6 C -1,1 C 92 % 1008,0 hPa 0,0 l/m 0 min 0 min 0 W/m 3,2 km/h (1 Bft) 97,87 %
02.12.2021 19:02 1,4 C 0,6 C -1,1 C 92 % 1008,1 hPa 0,0 l/m 0 min 0 min 0 W/m 3,2 km/h (1 Bft) 97,92 %
02.12.2021 19:04 1,4 C 0,6 C -1,1 C 93 % 1008,1 hPa 0,0 l/m 0 min 0 min 0 W/m 3,2 km/h (1 Bft) 100,00 %
02.12.2021 19:06 1,4 C 0,6 C -1,1 C 93 % 1008,2 hPa 0,0 l/m 0 min 0 min 0 W/m 3,2 km/h (1 Bft) 97,83 %
02.12.2021 19:08 1,3 C 0,6 C -1,1 C 93 % 1008,2 hPa 0,0 l/m 0 min 0 min 0 W/m 3,2 km/h (1 Bft) 100,00 %
02.12.2021 19:10 1,3 C 0,6 C -1,1 C 93 % 1008,2 hPa 0,0 l/m 0 min 0 min 0 W/m 6,4 km/h (2 Bft) 95,74 %
02.12.2021 19:12 1,3 C 0,6 C -1,1 C 93 % 1008,3 hPa 0,0 l/m 0 min 0 min 0 W/m 3,2 km/h (1 Bft) 100,00 %
02.12.2021 19:14 1,3 C 0,0 C -1,1 C 93 % 1008,3 hPa 0,0 l/m 0 min 0 min 0 W/m 3,2 km/h (1 Bft) 100,00 %
02.12.2021 19:16 1,2 C 0,0 C -1,1 C 93 % 1008,3 hPa 0,0 l/m 0 min 0 min 0 W/m 3,2 km/h (1 Bft) 100,00 %
02.12.2021 19:18 1,2 C 0,0 C -1,1 C 93 % 1008,3 hPa 0,0 l/m 0 min 0 min 0 W/m 0,0 km/h (0 Bft) 100,00 %
02.12.2021 19:20 1,1 C 0,0 C -1,1 C 93 % 1008,4 hPa 0,0 l/m 0 min 0 min 0 W/m 3,2 km/h (1 Bft) 100,00 %
02.12.2021 19:22 1,1 C 0,0 C -1,7 C 93 % 1008,5 hPa 0,0 l/m 0 min 0 min 0 W/m 3,2 km/h (1 Bft) 97,87 %
02.12.2021 19:24 1,1 C 0,0 C -1,7 C 93 % 1008,4 hPa 0,0 l/m 0 min 0 min 0 W/m 0,0 km/h (0 Bft) 97,87 %
02.12.2021 19:26 1,1 C 0,0 C -1,7 C 93 % 1008,5 hPa 0,0 l/m 0 min 0 min 0 W/m 3,2 km/h (1 Bft) 95,74 %
02.12.2021 19:28 1,1 C 0,0 C -1,7 C 93 % 1008,5 hPa 0,0 l/m 0 min 0 min 0 W/m 3,2 km/h (1 Bft) 95,74 %
02.12.2021 19:30 1,0 C 0,0 C -1,7 C 93 % 1008,6 hPa 0,0 l/m 0 min 0 min 0 W/m 3,2 km/h (1 Bft) 95,65 %
02.12.2021 19:32 1,0 C 0,0 C -1,7 C 93 % 1008,6 hPa 0,0 l/m 0 min 0 min 0 W/m 3,2 km/h (1 Bft) 97,92 %
02.12.2021 19:34 1,0 C 0,0 C -1,7 C 93 % 1008,7 hPa 0,0 l/m 0 min 0 min 0 W/m 3,2 km/h (1 Bft) 97,87 %
02.12.2021 19:36 0,9 C 0,0 C -1,7 C 93 % 1008,7 hPa 0,0 l/m 0 min 0 min 0 W/m 3,2 km/h (1 Bft) 93,62 %
02.12.2021 19:38 0,9 C 0,0 C -1,7 C 93 % 1008,7 hPa 0,0 l/m 0 min 0 min 0 W/m 3,2 km/h (1 Bft) 97,87 %
02.12.2021 19:40 0,9 C 0,0 C -1,7 C 93 % 1008,8 hPa 0,0 l/m 0 min 0 min 0 W/m 0,0 km/h (0 Bft) 97,83 %
02.12.2021 19:42 0,9 C 0,0 C -1,7 C 93 % 1008,8 hPa 0,0 l/m 0 min 0 min 0 W/m 3,2 km/h (1 Bft) 97,87 %
02.12.2021 19:44 0,9 C 0,0 C -1,7 C 93 % 1008,8 hPa 0,0 l/m 0 min 0 min 0 W/m 3,2 km/h (1 Bft) 91,49 %
02.12.2021 19:46 0,8 C -0,6 C -1,7 C 93 % 1008,9 hPa 0,0 l/m 0 min 0 min 0 W/m 3,2 km/h (1 Bft) 93,62 %
02.12.2021 19:48 0,8 C -0,6 C -1,7 C 93 % 1008,9 hPa 0,0 l/m 0 min 0 min 0 W/m 0,0 km/h (0 Bft) 93,62 %
02.12.2021 19:50 0,8 C -0,6 C -1,7 C 93 % 1008,9 hPa 0,0 l/m 0 min 0 min 0 W/m 3,2 km/h (1 Bft) 93,62 %
02.12.2021 19:52 0,7 C -0,6 C -2,2 C 93 % 1008,9 hPa 0,0 l/m 0 min 0 min 0 W/m 0,0 km/h (0 Bft) 93,48 %
02.12.2021 19:54 0,7 C -0,6 C -2,2 C 93 % 1008,9 hPa 0,0 l/m 0 min 0 min 0 W/m 3,2 km/h (1 Bft) 93,62 %
02.12.2021 19:56 0,6 C -0,6 C -2,2 C 93 % 1009,0 hPa 0,0 l/m 0 min 0 min 0 W/m 3,2 km/h (1 Bft) 94,00 %
02.12.2021 19:58 0,6 C -0,6 C -2,2 C 93 % 1009,0 hPa 0,0 l/m 0 min 0 min 0 W/m 0,0 km/h (0 Bft) 91,49 %
02.12.2021 20:00 0,5 C -0,6 C -2,2 C 93 % 1009,0 hPa 0,0 l/m 0 min 0 min 0 W/m 0,0 km/h (0 Bft) 91,49 %
02.12.2021 20:02 0,5 C -0,6 C -2,2 C 93 % 1009,1 hPa 0,0 l/m 0 min 0 min 0 W/m 3,2 km/h (1 Bft) 93,62 %
02.12.2021 20:04 0,5 C -0,6 C -2,2 C 93 % 1009,1 hPa 0,0 l/m 0 min 0 min 0 W/m 0,0 km/h (0 Bft) 93,62 %
02.12.2021 20:06 0,5 C -0,6 C -2,2 C 93 % 1009,1 hPa 0,0 l/m 0 min 0 min 0 W/m 0,0 km/h (0 Bft) 95,74 %
02.12.2021 20:08 0,5 C -0,6 C -2,2 C 93 % 1009,2 hPa 0,0 l/m 0 min 0 min 0 W/m 3,2 km/h (1 Bft) 91,49 %
02.12.2021 20:10 0,5 C -0,6 C -2,2 C 93 % 1009,2 hPa 0,0 l/m 0 min 0 min 0 W/m 0,0 km/h (0 Bft) 93,62 %
02.12.2021 20:12 0,5 C -0,6 C -2,2 C 93 % 1009,2 hPa 0,0 l/m 0 min 0 min 0 W/m 3,2 km/h (1 Bft) 93,62 %
02.12.2021 20:14 0,5 C -0,6 C -2,2 C 93 % 1009,2 hPa 0,0 l/m 0 min 0 min 0 W/m 3,2 km/h (1 Bft) 93,48 %
02.12.2021 20:16 0,5 C -0,6 C -2,2 C 93 % 1009,3 hPa 0,0 l/m 0 min 0 min 0 W/m 3,2 km/h (1 Bft) 93,62 %
02.12.2021 20:18 0,5 C -0,6 C -2,2 C 93 % 1009,3 hPa 0,0 l/m 0 min 0 min 0 W/m 0,0 km/h (0 Bft) 91,49 %
02.12.2021 20:20 0,5 C -0,6 C -2,2 C 93 % 1009,4 hPa 0,0 l/m 0 min 0 min 0 W/m 3,2 km/h (1 Bft) 97,87 %
02.12.2021 20:22 0,4 C -0,6 C -2,2 C 93 % 1009,4 hPa 0,0 l/m 0 min 0 min 0 W/m 3,2 km/h (1 Bft) 97,87 %
02.12.2021 20:24 0,4 C -0,6 C -2,2 C 93 % 1009,4 hPa 0,0 l/m 0 min 0 min 0 W/m 0,0 km/h (0 Bft) 97,87 %
02.12.2021 20:26 0,4 C -0,6 C -2,2 C 93 % 1009,4 hPa 0,0 l/m 0 min 0 min 0 W/m 3,2 km/h (1 Bft) 97,83 %
02.12.2021 20:28 0,4 C -0,6 C -2,2 C 93 % 1009,4 hPa 0,0 l/m 0 min 0 min 0 W/m 3,2 km/h (1 Bft) 97,87 %
02.12.2021 20:30 0,4 C -0,6 C -1,7 C 94 % 1009,5 hPa 0,0 l/m 0 min 0 min 0 W/m 3,2 km/h (1 Bft) 97,87 %
02.12.2021 20:32 0,4 C -0,6 C -1,7 C 93 % 1009,5 hPa 0,0 l/m 0 min 0 min 0 W/m 3,2 km/h (1 Bft) 100,00 %
02.12.2021 20:34 0,4 C -0,6 C -2,2 C 93 % 1009,5 hPa 0,0 l/m 0 min 0 min 0 W/m 0,0 km/h (0 Bft) 97,87 %
02.12.2021 20:36 0,4 C -0,6 C -1,7 C 93 % 1009,5 hPa 0,0 l/m 0 min 0 min 0 W/m 3,2 km/h (1 Bft) 97,87 %
02.12.2021 20:38 0,4 C -0,6 C -1,7 C 94 % 1009,5 hPa 0,0 l/m 0 min 0 min 0 W/m 3,2 km/h (1 Bft) 100,00 %
02.12.2021 20:40 0,4 C -0,6 C -1,7 C 94 % 1009,5 hPa 0,0 l/m 0 min 0 min 0 W/m 3,2 km/h (1 Bft) 100,00 %
02.12.2021 20:42 0,4 C -0,6 C -1,7 C 94 % 1009,5 hPa 0,0 l/m 0 min 0 min 0 W/m 3,2 km/h (1 Bft) 97,87 %
02.12.2021 20:44 0,4 C -0,6 C -1,7 C 94 % 1009,6 hPa 0,0 l/m 0 min 0 min 0 W/m 3,2 km/h (1 Bft) 100,00 %
02.12.2021 20:46 0,4 C -0,6 C -1,7 C 94 % 1009,7 hPa 0,0 l/m 0 min 0 min 0 W/m 3,2 km/h (1 Bft) 100,00 %
02.12.2021 20:48 0,4 C -0,6 C -1,7 C 94 % 1009,7 hPa 0,0 l/m 0 min 0 min 0 W/m 3,2 km/h (1 Bft) 100,00 %
02.12.2021 20:50 0,4 C -0,6 C -1,7 C 94 % 1009,7 hPa 0,0 l/m 0 min 0 min 0 W/m 3,2 km/h (1 Bft) 100,00 %
02.12.2021 20:52 0,4 C -0,6 C -1,7 C 94 % 1009,7 hPa 0,0 l/m 0 min 0 min 0 W/m 3,2 km/h (1 Bft) 97,87 %
02.12.2021 20:54 0,4 C -0,6 C -1,7 C 94 % 1009,7 hPa 0,0 l/m 0 min 0 min 0 W/m 3,2 km/h (1 Bft) 100,00 %
02.12.2021 20:56 0,4 C -0,6 C -1,7 C 94 % 1009,7 hPa 0,0 l/m 0 min 0 min 0 W/m 3,2 km/h (1 Bft) 100,00 %
02.12.2021 20:58 0,4 C -0,6 C -1,7 C 94 % 1009,7 hPa 0,0 l/m 0 min 0 min 0 W/m 3,2 km/h (1 Bft) 100,00 %
02.12.2021 21:00 0,4 C -0,6 C -1,7 C 94 % 1009,8 hPa 0,0 l/m 0 min 0 min 0 W/m 3,2 km/h (1 Bft) 97,87 %
02.12.2021 21:02 0,4 C -0,6 C -1,7 C 94 % 1009,8 hPa 0,0 l/m 0 min 0 min 0 W/m 6,4 km/h (2 Bft) 100,00 %
02.12.2021 21:04 0,4 C -0,6 C -1,7 C 94 % 1009,8 hPa 0,0 l/m 0 min 0 min 0 W/m 3,2 km/h (1 Bft) 100,00 %
02.12.2021 21:06 0,4 C -0,6 C -1,7 C 94 % 1009,8 hPa 0,0 l/m 0 min 0 min 0 W/m 3,2 km/h (1 Bft) 100,00 %
02.12.2021 21:08 0,4 C -0,6 C -1,7 C 94 % 1009,9 hPa 0,0 l/m 0 min 0 min 0 W/m 3,2 km/h (1 Bft) 100,00 %
02.12.2021 21:10 0,4 C -0,6 C -1,7 C 94 % 1009,9 hPa 0,0 l/m 0 min 0 min 0 W/m 3,2 km/h (1 Bft) 100,00 %
02.12.2021 21:12 0,4 C -0,6 C -1,7 C 94 % 1010,0 hPa 0,0 l/m 0 min 0 min 0 W/m 3,2 km/h (1 Bft) 100,00 %
02.12.2021 21:14 0,4 C -0,6 C -1,7 C 94 % 1010,0 hPa 0,0 l/m 0 min 0 min 0 W/m 6,4 km/h (2 Bft) 100,00 %
02.12.2021 21:16 0,3 C -0,6 C -1,7 C 94 % 1009,9 hPa 0,0 l/m 0 min 0 min 0 W/m 3,2 km/h (1 Bft) 100,00 %
02.12.2021 21:18 0,3 C -0,6 C -1,7 C 94 % 1009,9 hPa 0,0 l/m 0 min 0 min 0 W/m 6,4 km/h (2 Bft) 100,00 %
02.12.2021 21:20 0,3 C -0,6 C -1,7 C 94 % 1010,0 hPa 0,0 l/m 0 min 0 min 0 W/m 3,2 km/h (1 Bft) 95,74 %
02.12.2021 21:22 0,3 C -0,6 C -1,7 C 94 % 1010,0 hPa 0,0 l/m 0 min 0 min 0 W/m 3,2 km/h (1 Bft) 100,00 %
02.12.2021 21:24 0,3 C -0,6 C -1,7 C 94 % 1010,1 hPa 0,0 l/m 0 min 0 min 0 W/m 3,2 km/h (1 Bft) 100,00 %
02.12.2021 21:26 0,3 C -0,6 C -1,7 C 94 % 1010,1 hPa 0,0 l/m 0 min 0 min 0 W/m 3,2 km/h (1 Bft) 100,00 %
02.12.2021 21:28 0,4 C -0,6 C -1,7 C 94 % 1010,1 hPa 0,0 l/m 0 min 0 min 0 W/m 3,2 km/h (1 Bft) 97,83 %
02.12.2021 21:30 0,4 C -0,6 C -1,7 C 94 % 1010,1 hPa 0,0 l/m 0 min 0 min 0 W/m 3,2 km/h (1 Bft) 97,87 %
02.12.2021 21:32 0,4 C 0,0 C -1,7 C 95 % 1010,1 hPa 0,0 l/m 0 min 0 min 0 W/m 3,2 km/h (1 Bft) 95,74 %
02.12.2021 21:34 0,4 C 0,0 C -1,7 C 95 % 1010,2 hPa 0,0 l/m 0 min 0 min 0 W/m 0,0 km/h (0 Bft) 97,87 %
02.12.2021 21:36 0,4 C 0,0 C -1,7 C 95 % 1010,2 hPa 0,0 l/m 0 min 0 min 0 W/m 3,2 km/h (1 Bft) 95,74 %
02.12.2021 21:38 0,4 C 0,0 C -1,7 C 95 % 1010,2 hPa 0,0 l/m 0 min 0 min 0 W/m 3,2 km/h (1 Bft) 97,83 %
02.12.2021 21:40 0,5 C 0,0 C -1,7 C 95 % 1010,2 hPa 0,0 l/m 0 min 0 min 0 W/m 3,2 km/h (1 Bft) 97,87 %
02.12.2021 21:42 0,5 C 0,0 C -1,1 C 95 % 1010,2 hPa 0,0 l/m 0 min 0 min 0 W/m 3,2 km/h (1 Bft) 93,62 %
02.12.2021 21:44 0,5 C 0,0 C -1,1 C 95 % 1010,2 hPa 0,0 l/m 0 min 0 min 0 W/m 3,2 km/h (1 Bft) 95,74 %
02.12.2021 21:46 0,5 C 0,0 C -1,1 C 95 % 1010,3 hPa 0,0 l/m 0 min 0 min 0 W/m 3,2 km/h (1 Bft) 95,74 %
02.12.2021 21:48 0,5 C 0,0 C -1,1 C 95 % 1010,3 hPa 0,0 l/m 0 min 0 min 0 W/m 3,2 km/h (1 Bft) 95,74 %
02.12.2021 21:50 0,5 C -0,6 C -1,7 C 95 % 1010,4 hPa 0,0 l/m 0 min 0 min 0 W/m 3,2 km/h (1 Bft) 95,65 %
02.12.2021 21:52 0,5 C -0,6 C -1,7 C 95 % 1010,4 hPa 0,0 l/m 0 min 0 min 0 W/m 3,2 km/h (1 Bft) 93,62 %
02.12.2021 21:54 0,4 C -0,6 C -1,7 C 95 % 1010,4 hPa 0,0 l/m 0 min 0 min 0 W/m 6,4 km/h (2 Bft) 93,62 %
02.12.2021 21:56 0,4 C -0,6 C -1,7 C 95 % 1010,3 hPa 0,0 l/m 0 min 0 min 0 W/m 3,2 km/h (1 Bft) 93,62 %
02.12.2021 21:58 0,4 C -0,6 C -1,7 C 95 % 1010,3 hPa 0,0 l/m 0 min 0 min 0 W/m 3,2 km/h (1 Bft) 93,62 %
02.12.2021 22:00 0,4 C -0,6 C -1,7 C 95 % 1010,4 hPa 0,0 l/m 0 min 0 min 0 W/m 3,2 km/h (1 Bft) 97,87 %
02.12.2021 22:02 0,4 C -0,6 C -1,7 C 95 % 1010,4 hPa 0,0 l/m 0 min 0 min 0 W/m 3,2 km/h (1 Bft) 98,11 %
02.12.2021 22:04 0,4 C -0,6 C -1,7 C 95 % 1010,4 hPa 0,0 l/m 0 min 0 min 0 W/m 3,2 km/h (1 Bft) 97,87 %
02.12.2021 22:06 0,3 C -0,6 C -1,7 C 95 % 1010,4 hPa 0,0 l/m 0 min 0 min 0 W/m 3,2 km/h (1 Bft) 97,87 %
02.12.2021 22:08 0,3 C -0,6 C -1,7 C 95 % 1010,4 hPa 0,0 l/m 0 min 0 min 0 W/m 3,2 km/h (1 Bft) 97,87 %
02.12.2021 22:10 0,3 C -0,6 C -1,7 C 95 % 1010,4 hPa 0,0 l/m 0 min 0 min 0 W/m 3,2 km/h (1 Bft) 97,87 %
02.12.2021 22:12 0,3 C -0,6 C -1,7 C 95 % 1010,5 hPa 0,0 l/m 0 min 0 min 0 W/m 6,4 km/h (2 Bft) 97,83 %
02.12.2021 22:14 0,3 C -0,6 C -1,7 C 95 % 1010,6 hPa 0,0 l/m 0 min 0 min 0 W/m 6,4 km/h (2 Bft) 97,87 %
02.12.2021 22:16 0,2 C -0,6 C -1,7 C 95 % 1010,6 hPa 0,0 l/m 0 min 0 min 0 W/m 3,2 km/h (1 Bft) 97,87 %
02.12.2021 22:18 0,2 C -0,6 C -1,7 C 95 % 1010,5 hPa 0,0 l/m 0 min 0 min 0 W/m 6,4 km/h (2 Bft) 97,87 %
02.12.2021 22:20 0,2 C -0,6 C -1,7 C 95 % 1010,5 hPa 0,0 l/m 0 min 0 min 0 W/m 6,4 km/h (2 Bft) 95,74 %
02.12.2021 22:22 0,2 C -0,6 C -1,7 C 95 % 1010,5 hPa 0,0 l/m 0 min 0 min 0 W/m 3,2 km/h (1 Bft) 100,00 %
02.12.2021 22:24 0,2 C -0,6 C -1,7 C 95 % 1010,5 hPa 0,0 l/m 0 min 0 min 0 W/m 6,4 km/h (2 Bft) 100,00 %
02.12.2021 22:26 0,1 C -0,6 C -1,7 C 95 % 1010,6 hPa 0,0 l/m 0 min 0 min 0 W/m 3,2 km/h (1 Bft) 100,00 %
02.12.2021 22:28 0,2 C -0,6 C -1,7 C 95 % 1010,6 hPa 0,0 l/m 0 min 0 min 0 W/m 3,2 km/h (1 Bft) 100,00 %
02.12.2021 22:30 0,1 C -0,6 C -1,7 C 95 % 1010,7 hPa 0,0 l/m 0 min 0 min 0 W/m 3,2 km/h (1 Bft) 100,00 %
02.12.2021 22:32 0,1 C -0,6 C -1,7 C 95 % 1010,7 hPa 0,0 l/m 0 min 0 min 0 W/m 6,4 km/h (2 Bft) 97,87 %
02.12.2021 22:34 0,1 C -0,6 C -1,7 C 95 % 1010,8 hPa 0,0 l/m 0 min 0 min 0 W/m 3,2 km/h (1 Bft) 100,00 %
02.12.2021 22:36 0,1 C -0,6 C -1,7 C 95 % 1010,9 hPa 0,0 l/m 0 min 0 min 0 W/m 6,4 km/h (2 Bft) 97,83 %
02.12.2021 22:38 0,1 C -0,6 C -1,7 C 95 % 1010,9 hPa 0,0 l/m 0 min 0 min 0 W/m 6,4 km/h (2 Bft) 100,00 %
02.12.2021 22:40 0,1 C -0,6 C -1,7 C 95 % 1010,8 hPa 0,0 l/m 0 min 0 min 0 W/m 3,2 km/h (1 Bft) 100,00 %
02.12.2021 22:42 0,1 C -0,6 C -1,7 C 95 % 1010,9 hPa 0,0 l/m 0 min 0 min 0 W/m 6,4 km/h (2 Bft) 97,37 %
02.12.2021 22:44 0,0 C -1,1 C -1,7 C 95 % 1010,9 hPa 0,0 l/m 0 min 0 min 0 W/m 3,2 km/h (1 Bft) 100,00 %
02.12.2021 22:46 0,0 C -1,1 C -1,7 C 95 % 1010,9 hPa 0,0 l/m 0 min 0 min 0 W/m 3,2 km/h (1 Bft) 100,00 %
02.12.2021 22:48 0,0 C -1,1 C -1,7 C 95 % 1010,9 hPa 0,0 l/m 0 min 0 min 0 W/m 9,7 km/h (2 Bft) 100,00 %
02.12.2021 22:50 0,0 C -1,1 C -1,7 C 95 % 1010,9 hPa 0,0 l/m 0 min 0 min 0 W/m 3,2 km/h (1 Bft) 100,00 %
02.12.2021 22:52 0,0 C -1,1 C -1,7 C 95 % 1010,9 hPa 0,0 l/m 0 min 0 min 0 W/m 3,2 km/h (1 Bft) 97,87 %
02.12.2021 22:54 0,0 C -1,1 C -1,7 C 95 % 1010,8 hPa 0,0 l/m 0 min 0 min 0 W/m 3,2 km/h (1 Bft) 97,87 %
02.12.2021 22:56 -0,1 C -1,1 C -1,7 C 95 % 1010,8 hPa 0,0 l/m 0 min 0 min 0 W/m 3,2 km/h (1 Bft) 100,00 %
02.12.2021 22:58 -0,1 C -1,1 C -1,7 C 95 % 1010,8 hPa 0,0 l/m 0 min 0 min 0 W/m 0,0 km/h (0 Bft) 100,00 %
02.12.2021 23:00 -0,1 C -1,1 C -1,7 C 95 % 1010,8 hPa 0,0 l/m 0 min 0 min 0 W/m 3,2 km/h (1 Bft) 100,00 %
02.12.2021 23:02 -0,1 C -1,1 C -1,7 C 95 % 1010,8 hPa 0,0 l/m 0 min 0 min 0 W/m 3,2 km/h (1 Bft) 97,83 %
02.12.2021 23:04 -0,1 C -1,1 C -1,7 C 95 % 1010,8 hPa 0,0 l/m 0 min 0 min 0 W/m 0,0 km/h (0 Bft) 97,87 %
02.12.2021 23:06 -0,1 C -1,1 C -1,7 C 95 % 1010,8 hPa 0,0 l/m 0 min 0 min 0 W/m 3,2 km/h (1 Bft) 97,87 %
02.12.2021 23:08 -0,1 C -1,1 C -1,7 C 95 % 1010,8 hPa 0,0 l/m 0 min 0 min 0 W/m 3,2 km/h (1 Bft) 97,87 %
02.12.2021 23:10 -0,1 C -1,1 C -1,7 C 95 % 1010,8 hPa 0,0 l/m 0 min 0 min 0 W/m 3,2 km/h (1 Bft) 97,87 %
02.12.2021 23:12 -0,2 C -1,1 C -1,7 C 95 % 1010,9 hPa 0,0 l/m 0 min 0 min 0 W/m 3,2 km/h (1 Bft) 95,65 %
02.12.2021 23:14 -0,2 C -1,1 C -1,7 C 95 % 1010,9 hPa 0,0 l/m 0 min 0 min 0 W/m 3,2 km/h (1 Bft) 93,62 %
02.12.2021 23:16 -0,2 C -1,1 C -1,7 C 95 % 1010,9 hPa 0,0 l/m 0 min 0 min 0 W/m 3,2 km/h (1 Bft) 93,62 %
02.12.2021 23:18 -0,2 C -1,1 C -1,7 C 95 % 1011,0 hPa 0,0 l/m 0 min 0 min 0 W/m 3,2 km/h (1 Bft) 95,74 %
02.12.2021 23:20 -0,2 C -1,1 C -1,7 C 95 % 1011,1 hPa 0,0 l/m 0 min 0 min 0 W/m 3,2 km/h (1 Bft) 95,74 %
02.12.2021 23:22 -0,3 C -1,1 C -1,7 C 95 % 1011,2 hPa 0,0 l/m 0 min 0 min 0 W/m 3,2 km/h (1 Bft) 95,74 %
02.12.2021 23:24 -0,3 C -1,1 C -1,7 C 95 % 1011,1 hPa 0,0 l/m 0 min 0 min 0 W/m 3,2 km/h (1 Bft) 95,74 %
02.12.2021 23:26 -0,3 C -1,1 C -2,2 C 95 % 1011,1 hPa 0,0 l/m 0 min 0 min 0 W/m 3,2 km/h (1 Bft) 95,65 %
02.12.2021 23:28 -0,3 C -1,1 C -2,2 C 95 % 1011,1 hPa 0,0 l/m 0 min 0 min 0 W/m 3,2 km/h (1 Bft) 93,62 %
02.12.2021 23:30 -0,4 C -1,1 C -2,2 C 95 % 1011,2 hPa 0,0 l/m 0 min 0 min 0 W/m 3,2 km/h (1 Bft) 95,74 %
02.12.2021 23:32 -0,4 C -1,1 C -2,2 C 95 % 1011,2 hPa 0,0 l/m 0 min 0 min 0 W/m 3,2 km/h (1 Bft) 93,62 %
02.12.2021 23:34 -0,4 C -1,1 C -2,2 C 95 % 1011,2 hPa 0,0 l/m 0 min 0 min 0 W/m 3,2 km/h (1 Bft) 93,62 %
02.12.2021 23:36 -0,4 C -1,1 C -2,2 C 95 % 1011,3 hPa 0,0 l/m 0 min 0 min 0 W/m 3,2 km/h (1 Bft) 93,48 %
02.12.2021 23:38 -0,4 C -1,1 C -2,2 C 95 % 1011,2 hPa 0,0 l/m 0 min 0 min 0 W/m 3,2 km/h (1 Bft) 93,62 %
02.12.2021 23:40 -0,4 C -1,1 C -2,2 C 95 % 1011,3 hPa 0,0 l/m 0 min 0 min 0 W/m 3,2 km/h (1 Bft) 93,62 %
02.12.2021 23:42 -0,4 C -1,1 C -2,2 C 95 % 1011,2 hPa 0,0 l/m 0 min 0 min 0 W/m 3,2 km/h (1 Bft) 97,87 %
02.12.2021 23:44 -0,4 C -1,1 C -2,2 C 95 % 1011,3 hPa 0,0 l/m 0 min 0 min 0 W/m 0,0 km/h (0 Bft) 95,74 %
02.12.2021 23:46 -0,5 C -1,7 C -2,2 C 95 % 1011,2 hPa 0,0 l/m 0 min 0 min 0 W/m 0,0 km/h (0 Bft) 95,74 %
02.12.2021 23:48 -0,5 C -1,7 C -2,2 C 95 % 1011,2 hPa 0,0 l/m 0 min 0 min 0 W/m 3,2 km/h (1 Bft) 97,83 %
02.12.2021 23:50 -0,5 C -1,7 C -2,2 C 95 % 1011,3 hPa 0,0 l/m 0 min 0 min 0 W/m 0,0 km/h (0 Bft) 95,74 %
02.12.2021 23:52 -0,5 C -1,7 C -2,2 C 95 % 1011,3 hPa 0,0 l/m 0 min 0 min 0 W/m 3,2 km/h (1 Bft) 91,49 %
02.12.2021 23:54 -0,5 C -1,7 C -2,2 C 95 % 1011,2 hPa 0,0 l/m 0 min 0 min 0 W/m 0,0 km/h (0 Bft) 97,87 %
02.12.2021 23:56 -0,5 C -1,7 C -2,2 C 95 % 1011,2 hPa 0,0 l/m 0 min 0 min 0 W/m 3,2 km/h (1 Bft) 93,62 %
02.12.2021 23:58 -0,5 C -1,7 C -2,2 C 95 % 1011,3 hPa 0,0 l/m 0 min 0 min 0 W/m 3,2 km/h (1 Bft) 95,74 %
_ Min-Zeit 23:46 23:46 19:52 12:38 00:00 - - - - 19:18 00:42
Minimum _ -0,5 C -1,7 C -2,2 C 88 % 998,2 hPa - - - - 0,0 km/h (0 Bft) 68,09 %
_ Max-Zeit 02:18 12:26 00:54 01:56 23:36 00:00 08:58 02:28 11:02 16:12 00:02
Maximum _ 4,9 C 6,7 C 3,3 C 96 % 1011,3 hPa 0,0 l/m 2 min 2 min 325 W/m 32,2 km/h
W-SW (5 Bft)
100,00 %
Durchschnitt _ 3,0 C 2,5 C 1,2 C 93 % 1003,3 hPa #0,0 l/m #1:14 h #49 min. 72 W/m 9,8 km/h (2 Bft) 97,42 %
© 2021 W. Hausmann